Wetterdaten: Dienstag, 28.12.2021
Datum Zeit Temp. Aussen Temp. o. S. Temp +5cm Feuchte Auss Luftdruck Regen Sonnenschein Regendauer Solar Windben Empfang
28.12.2021 00:00 6,8 C 6,1 C 4,4 C 98 % 997,1 hPa 0,0 l/m 0 min 0 min 0 W/m 16,1 km/h (3 Bft) 94,74 %
28.12.2021 00:02 6,8 C 6,1 C 4,4 C 98 % 997,1 hPa 0,0 l/m 0 min 0 min 0 W/m 12,9 km/h (3 Bft) 94,44 %
28.12.2021 00:04 6,8 C 6,1 C 4,4 C 98 % 997,1 hPa 0,0 l/m 0 min 0 min 0 W/m 12,9 km/h (3 Bft) 95,74 %
28.12.2021 00:08 6,7 C 5,6 C 4,4 C 98 % 997,2 hPa 0,0 l/m 0 min 0 min 0 W/m 19,3 km/h (3 Bft) 94,90 %
28.12.2021 00:10 6,7 C 5,6 C 4,4 C 98 % 997,2 hPa 0,0 l/m 0 min 0 min 0 W/m 12,9 km/h (3 Bft) 91,30 %
28.12.2021 00:12 6,7 C 5,6 C 4,4 C 98 % 997,2 hPa 0,0 l/m 0 min 0 min 0 W/m 12,9 km/h (3 Bft) 95,74 %
28.12.2021 00:14 6,7 C 5,6 C 4,4 C 98 % 997,2 hPa 0,0 l/m 0 min 0 min 0 W/m 12,9 km/h (3 Bft) 95,45 %
28.12.2021 00:16 6,7 C 5,6 C 4,4 C 98 % 997,2 hPa 0,0 l/m 0 min 0 min 0 W/m 16,1 km/h (3 Bft) 100,00 %
28.12.2021 00:18 6,6 C 5,6 C 4,4 C 98 % 997,1 hPa 0,0 l/m 0 min 0 min 0 W/m 12,9 km/h (3 Bft) 97,87 %
28.12.2021 00:20 6,6 C 5,6 C 4,4 C 98 % 997,1 hPa 0,0 l/m 0 min 0 min 0 W/m 16,1 km/h (3 Bft) 95,74 %
28.12.2021 00:22 6,6 C 5,6 C 4,4 C 98 % 997,1 hPa 0,0 l/m 0 min 0 min 0 W/m 16,1 km/h (3 Bft) 95,35 %
28.12.2021 00:24 6,6 C 5,6 C 4,4 C 98 % 997,0 hPa 0,0 l/m 0 min 0 min 0 W/m 12,9 km/h (3 Bft) 97,87 %
28.12.2021 00:26 6,6 C 5,6 C 4,4 C 98 % 997,0 hPa 0,0 l/m 0 min 0 min 0 W/m 12,9 km/h (3 Bft) 96,00 %
28.12.2021 00:28 6,6 C 6,1 C 4,4 C 98 % 997,0 hPa 0,0 l/m 0 min 0 min 0 W/m 19,3 km/h (3 Bft) 97,87 %
28.12.2021 00:30 6,6 C 6,1 C 4,4 C 98 % 997,0 hPa 0,0 l/m 0 min 0 min 0 W/m 19,3 km/h (3 Bft) 97,73 %
28.12.2021 00:32 6,6 C 6,1 C 4,4 C 98 % 996,9 hPa 0,0 l/m 0 min 0 min 0 W/m 12,9 km/h (3 Bft) 97,87 %
28.12.2021 00:34 6,6 C 6,1 C 4,4 C 98 % 996,9 hPa 0,0 l/m 0 min 0 min 0 W/m 12,9 km/h (3 Bft) 95,92 %
28.12.2021 00:36 6,6 C 5,6 C 4,4 C 98 % 996,9 hPa 0,0 l/m 0 min 0 min 0 W/m 12,9 km/h (3 Bft) 97,87 %
28.12.2021 00:38 6,6 C 5,6 C 4,4 C 98 % 996,8 hPa 0,0 l/m 0 min 0 min 0 W/m 12,9 km/h (3 Bft) 95,74 %
28.12.2021 00:40 6,6 C 5,6 C 4,4 C 98 % 996,9 hPa 0,0 l/m 0 min 0 min 0 W/m 12,9 km/h (3 Bft) 97,83 %
28.12.2021 00:42 6,6 C 5,6 C 4,4 C 98 % 996,9 hPa 0,0 l/m 0 min 0 min 0 W/m 6,4 km/h (2 Bft) 94,00 %
28.12.2021 00:44 6,6 C 5,6 C 4,4 C 98 % 996,8 hPa 0,0 l/m 0 min 0 min 0 W/m 9,7 km/h (2 Bft) 100,00 %
28.12.2021 00:46 6,6 C 5,6 C 4,4 C 98 % 996,8 hPa 0,0 l/m 0 min 0 min 0 W/m 16,1 km/h (3 Bft) 95,83 %
28.12.2021 00:48 6,6 C 5,6 C 4,4 C 98 % 996,9 hPa 0,0 l/m 0 min 0 min 0 W/m 6,4 km/h (2 Bft) 97,14 %
28.12.2021 00:50 6,5 C 5,6 C 4,4 C 99 % 996,7 hPa 0,0 l/m 0 min 0 min 0 W/m 12,9 km/h (3 Bft) 98,31 %
28.12.2021 00:52 6,5 C 5,6 C 4,4 C 99 % 996,7 hPa 0,0 l/m 0 min 0 min 0 W/m 9,7 km/h (2 Bft) 97,14 %
28.12.2021 00:54 6,5 C 5,6 C 4,4 C 99 % 996,7 hPa 0,0 l/m 0 min 0 min 0 W/m 6,4 km/h (2 Bft) 95,74 %
28.12.2021 00:56 6,5 C 5,6 C 4,4 C 99 % 996,7 hPa 0,0 l/m 0 min 0 min 0 W/m 12,9 km/h (3 Bft) 96,36 %
28.12.2021 00:58 6,5 C 5,6 C 4,4 C 99 % 996,7 hPa 0,0 l/m 0 min 0 min 0 W/m 16,1 km/h (3 Bft) 98,00 %
28.12.2021 01:00 6,4 C 5,6 C 4,4 C 99 % 996,6 hPa 0,0 l/m 0 min 0 min 0 W/m 12,9 km/h (3 Bft) 96,00 %
28.12.2021 01:02 6,4 C 5,6 C 4,4 C 99 % 996,6 hPa 0,0 l/m 0 min 0 min 0 W/m 12,9 km/h (3 Bft) 92,11 %
28.12.2021 01:04 6,4 C 5,6 C 4,4 C 99 % 996,6 hPa 0,0 l/m 0 min 0 min 0 W/m 6,4 km/h (2 Bft) 96,00 %
28.12.2021 01:06 6,4 C 5,6 C 4,4 C 99 % 996,5 hPa 0,0 l/m 0 min 0 min 0 W/m 12,9 km/h (3 Bft) 97,96 %
28.12.2021 01:08 6,4 C 5,6 C 4,4 C 99 % 996,5 hPa 0,0 l/m 0 min 0 min 0 W/m 16,1 km/h (3 Bft) 97,87 %
28.12.2021 01:10 6,4 C 5,6 C 4,4 C 99 % 996,5 hPa 0,0 l/m 0 min 0 min 0 W/m 16,1 km/h (3 Bft) 97,87 %
28.12.2021 01:12 6,4 C 5,6 C 4,4 C 99 % 996,5 hPa 0,0 l/m 0 min 0 min 0 W/m 16,1 km/h (3 Bft) 97,87 %
28.12.2021 01:14 6,4 C 5,6 C 4,4 C 99 % 996,4 hPa 0,0 l/m 0 min 0 min 0 W/m 12,9 km/h (3 Bft) 97,87 %
28.12.2021 01:16 6,4 C 5,6 C 4,4 C 99 % 996,4 hPa 0,0 l/m 0 min 0 min 0 W/m 12,9 km/h (3 Bft) 97,87 %
28.12.2021 01:18 6,4 C 5,6 C 4,4 C 99 % 996,4 hPa 0,0 l/m 0 min 0 min 0 W/m 9,7 km/h (2 Bft) 97,83 %
28.12.2021 01:20 6,4 C 5,6 C 4,4 C 99 % 996,4 hPa 0,0 l/m 0 min 0 min 0 W/m 12,9 km/h (3 Bft) 97,87 %
28.12.2021 01:22 6,4 C 5,6 C 4,4 C 99 % 996,4 hPa 0,0 l/m 0 min 0 min 0 W/m 12,9 km/h (3 Bft) 97,87 %
28.12.2021 01:24 6,4 C 5,6 C 4,4 C 99 % 996,4 hPa 0,0 l/m 0 min 0 min 0 W/m 16,1 km/h (3 Bft) 97,87 %
28.12.2021 01:26 6,4 C 5,6 C 4,4 C 99 % 996,3 hPa 0,0 l/m 0 min 0 min 0 W/m 12,9 km/h (3 Bft) 97,87 %
28.12.2021 01:28 6,4 C 5,6 C 4,4 C 99 % 996,3 hPa 0,0 l/m 0 min 0 min 0 W/m 6,4 km/h (2 Bft) 97,87 %
28.12.2021 01:30 6,3 C 5,6 C 4,4 C 99 % 996,2 hPa 0,0 l/m 0 min 0 min 0 W/m 19,3 km/h (3 Bft) 100,00 %
28.12.2021 01:32 6,3 C 5,6 C 4,4 C 99 % 996,1 hPa 0,0 l/m 0 min 0 min 0 W/m 6,4 km/h (2 Bft) 93,62 %
28.12.2021 01:34 6,3 C 5,6 C 4,4 C 99 % 996,2 hPa 0,0 l/m 0 min 0 min 0 W/m 12,9 km/h (3 Bft) 100,00 %
28.12.2021 01:36 6,3 C 5,6 C 4,4 C 99 % 996,3 hPa 0,0 l/m 0 min 0 min 0 W/m 16,1 km/h (3 Bft) 100,00 %
28.12.2021 01:38 6,3 C 5,6 C 4,4 C 99 % 996,3 hPa 0,0 l/m 0 min 0 min 0 W/m 12,9 km/h (3 Bft) 95,74 %
28.12.2021 01:40 6,3 C 5,6 C 4,4 C 99 % 996,3 hPa 0,0 l/m 0 min 0 min 0 W/m 6,4 km/h (2 Bft) 97,87 %
28.12.2021 01:42 6,3 C 5,6 C 4,4 C 99 % 996,3 hPa 0,0 l/m 0 min 0 min 0 W/m 12,9 km/h (3 Bft) 97,83 %
28.12.2021 01:44 6,3 C 5,6 C 4,4 C 99 % 996,2 hPa 0,0 l/m 0 min 0 min 0 W/m 16,1 km/h (3 Bft) 97,87 %
28.12.2021 01:46 6,3 C 5,6 C 4,4 C 99 % 996,2 hPa 0,0 l/m 0 min 0 min 0 W/m 9,7 km/h (2 Bft) 97,87 %
28.12.2021 01:48 6,3 C 5,6 C 4,4 C 99 % 996,2 hPa 0,0 l/m 0 min 0 min 0 W/m 12,9 km/h (3 Bft) 95,74 %
28.12.2021 01:50 6,3 C 5,6 C 4,4 C 99 % 996,2 hPa 0,0 l/m 0 min 0 min 0 W/m 12,9 km/h (3 Bft) 95,74 %
28.12.2021 01:52 6,3 C 5,6 C 4,4 C 99 % 996,2 hPa 0,0 l/m 0 min 0 min 0 W/m 12,9 km/h (3 Bft) 95,74 %
28.12.2021 01:54 6,3 C 5,6 C 4,4 C 99 % 996,1 hPa 0,0 l/m 0 min 0 min 0 W/m 12,9 km/h (3 Bft) 97,83 %
28.12.2021 01:56 6,3 C 5,6 C 4,4 C 99 % 996,1 hPa 0,0 l/m 0 min 0 min 0 W/m 16,1 km/h (3 Bft) 97,87 %
28.12.2021 01:58 6,3 C 5,6 C 4,4 C 99 % 996,1 hPa 0,0 l/m 0 min 0 min 0 W/m 9,7 km/h (2 Bft) 97,87 %
28.12.2021 02:00 6,3 C 5,6 C 4,4 C 99 % 996,1 hPa 0,0 l/m 0 min 0 min 0 W/m 6,4 km/h (2 Bft) 97,87 %
28.12.2021 02:02 6,3 C 5,6 C 4,4 C 99 % 996,1 hPa 0,0 l/m 0 min 0 min 0 W/m 9,7 km/h (2 Bft) 97,87 %
28.12.2021 02:04 6,2 C 5,6 C 4,4 C 99 % 996,1 hPa 0,0 l/m 0 min 0 min 0 W/m 12,9 km/h (3 Bft) 97,87 %
28.12.2021 02:06 6,2 C 5,6 C 4,4 C 99 % 996,1 hPa 0,0 l/m 0 min 0 min 0 W/m 9,7 km/h (2 Bft) 97,83 %
28.12.2021 02:08 6,2 C 5,6 C 4,4 C 99 % 996,0 hPa 0,0 l/m 0 min 0 min 0 W/m 12,9 km/h (3 Bft) 97,87 %
28.12.2021 02:10 6,2 C 5,6 C 4,4 C 99 % 996,0 hPa 0,0 l/m 0 min 0 min 0 W/m 6,4 km/h (2 Bft) 100,00 %
28.12.2021 02:12 6,2 C 5,6 C 4,4 C 99 % 996,1 hPa 0,0 l/m 0 min 0 min 0 W/m 12,9 km/h (3 Bft) 100,00 %
28.12.2021 02:14 6,2 C 5,6 C 4,4 C 99 % 996,0 hPa 0,0 l/m 0 min 0 min 0 W/m 12,9 km/h (3 Bft) 97,87 %
28.12.2021 02:16 6,2 C 5,6 C 4,4 C 99 % 996,1 hPa 0,0 l/m 0 min 0 min 0 W/m 12,9 km/h (3 Bft) 100,00 %
28.12.2021 02:18 6,2 C 5,6 C 4,4 C 99 % 996,0 hPa 0,0 l/m 0 min 0 min 0 W/m 9,7 km/h (2 Bft) 100,00 %
28.12.2021 02:20 6,2 C 5,6 C 4,4 C 99 % 996,0 hPa 0,0 l/m 0 min 0 min 0 W/m 6,4 km/h (2 Bft) 100,00 %
28.12.2021 02:22 6,2 C 5,6 C 4,4 C 99 % 995,9 hPa 0,0 l/m 0 min 0 min 0 W/m 12,9 km/h (3 Bft) 97,87 %
28.12.2021 02:24 6,2 C 5,6 C 4,4 C 99 % 995,9 hPa 0,0 l/m 0 min 0 min 0 W/m 12,9 km/h (3 Bft) 100,00 %
28.12.2021 02:26 6,2 C 5,6 C 4,4 C 99 % 996,0 hPa 0,0 l/m 0 min 0 min 0 W/m 19,3 km/h (3 Bft) 95,74 %
28.12.2021 02:28 6,2 C 5,6 C 4,4 C 99 % 995,9 hPa 0,0 l/m 0 min 0 min 0 W/m 16,1 km/h (3 Bft) 100,00 %
28.12.2021 02:30 6,3 C 5,6 C 4,4 C 99 % 995,9 hPa 0,0 l/m 0 min 0 min 0 W/m 12,9 km/h (3 Bft) 100,00 %
28.12.2021 02:32 6,3 C 5,6 C 4,4 C 99 % 995,9 hPa 0,0 l/m 0 min 0 min 0 W/m 12,9 km/h (3 Bft) 100,00 %
28.12.2021 02:34 6,3 C 5,6 C 4,4 C 99 % 995,8 hPa 0,0 l/m 0 min 0 min 0 W/m 16,1 km/h (3 Bft) 100,00 %
28.12.2021 02:36 6,3 C 5,6 C 4,4 C 99 % 995,9 hPa 0,0 l/m 0 min 0 min 0 W/m 9,7 km/h (2 Bft) 100,00 %
28.12.2021 02:38 6,3 C 5,6 C 4,4 C 99 % 995,8 hPa 0,0 l/m 0 min 0 min 0 W/m 12,9 km/h (3 Bft) 100,00 %
28.12.2021 02:40 6,3 C 5,6 C 4,4 C 99 % 995,8 hPa 0,0 l/m 0 min 0 min 0 W/m 12,9 km/h (3 Bft) 97,83 %
28.12.2021 02:42 6,4 C 6,1 C 4,4 C 99 % 995,8 hPa 0,0 l/m 0 min 0 min 0 W/m 22,5 km/h (4 Bft) 100,00 %
28.12.2021 02:44 6,4 C 6,1 C 4,4 C 99 % 995,8 hPa 0,0 l/m 0 min 0 min 0 W/m 19,3 km/h (3 Bft) 100,00 %
28.12.2021 02:46 6,4 C 6,1 C 4,4 C 99 % 995,8 hPa 0,0 l/m 0 min 0 min 0 W/m 9,7 km/h (2 Bft) 100,00 %
28.12.2021 02:48 6,4 C 6,1 C 4,4 C 99 % 995,8 hPa 0,0 l/m 0 min 0 min 0 W/m 12,9 km/h (3 Bft) 100,00 %
28.12.2021 02:50 6,4 C 6,1 C 5,0 C 99 % 995,8 hPa 0,0 l/m 0 min 0 min 0 W/m 16,1 km/h (3 Bft) 97,87 %
28.12.2021 02:52 6,5 C 6,1 C 5,0 C 99 % 995,8 hPa 0,0 l/m 0 min 0 min 0 W/m 6,4 km/h (2 Bft) 97,83 %
28.12.2021 02:54 6,5 C 6,1 C 5,0 C 99 % 995,7 hPa 0,0 l/m 0 min 0 min 0 W/m 12,9 km/h (3 Bft) 97,87 %
28.12.2021 02:56 6,5 C 6,1 C 5,0 C 99 % 995,8 hPa 0,0 l/m 0 min 0 min 0 W/m 12,9 km/h (3 Bft) 93,62 %
28.12.2021 02:58 6,5 C 6,1 C 5,0 C 99 % 995,7 hPa 0,0 l/m 0 min 0 min 0 W/m 6,4 km/h (2 Bft) 97,87 %
28.12.2021 03:00 6,5 C 6,1 C 5,0 C 99 % 995,7 hPa 0,0 l/m 0 min 0 min 0 W/m 12,9 km/h (3 Bft) 97,87 %
28.12.2021 03:02 6,6 C 6,1 C 5,0 C 99 % 995,7 hPa 0,0 l/m 0 min 0 min 0 W/m 6,4 km/h (2 Bft) 97,87 %
28.12.2021 03:04 6,6 C 6,1 C 5,0 C 99 % 995,7 hPa 0,0 l/m 0 min 0 min 0 W/m 12,9 km/h (3 Bft) 97,83 %
28.12.2021 03:06 6,6 C 6,1 C 5,0 C 99 % 995,6 hPa 0,0 l/m 0 min 0 min 0 W/m 16,1 km/h (3 Bft) 95,74 %
28.12.2021 03:08 6,6 C 6,1 C 5,0 C 99 % 995,7 hPa 0,0 l/m 0 min 0 min 0 W/m 16,1 km/h (3 Bft) 95,74 %
28.12.2021 03:10 6,7 C 6,1 C 5,0 C 99 % 995,6 hPa 0,0 l/m 0 min 0 min 0 W/m 19,3 km/h (3 Bft) 95,74 %
28.12.2021 03:12 6,7 C 6,1 C 5,0 C 99 % 995,6 hPa 0,0 l/m 0 min 0 min 0 W/m 16,1 km/h (3 Bft) 95,74 %
28.12.2021 03:14 6,7 C 6,1 C 5,0 C 99 % 995,6 hPa 0,0 l/m 0 min 0 min 0 W/m 19,3 km/h (3 Bft) 93,62 %
28.12.2021 03:16 6,7 C 6,1 C 5,0 C 99 % 995,6 hPa 0,0 l/m 0 min 0 min 0 W/m 16,1 km/h (3 Bft) 97,83 %
28.12.2021 03:18 6,7 C 6,1 C 5,0 C 99 % 995,6 hPa 0,0 l/m 0 min 0 min 0 W/m 16,1 km/h (3 Bft) 95,74 %
28.12.2021 03:20 6,7 C 6,1 C 5,0 C 99 % 995,6 hPa 0,0 l/m 0 min 0 min 0 W/m 22,5 km/h (4 Bft) 97,87 %
28.12.2021 03:22 6,7 C 6,1 C 5,0 C 99 % 995,6 hPa 0,0 l/m 0 min 0 min 0 W/m 16,1 km/h (3 Bft) 97,87 %
28.12.2021 03:24 6,7 C 6,1 C 5,0 C 99 % 995,6 hPa 0,0 l/m 0 min 0 min 0 W/m 16,1 km/h (3 Bft) 93,62 %
28.12.2021 03:26 6,8 C 6,1 C 5,0 C 99 % 995,6 hPa 0,0 l/m 0 min 0 min 0 W/m 19,3 km/h (3 Bft) 91,30 %
28.12.2021 03:28 6,8 C 6,1 C 5,0 C 99 % 995,6 hPa 0,0 l/m 0 min 0 min 0 W/m 16,1 km/h (3 Bft) 95,74 %
28.12.2021 03:30 6,8 C 6,1 C 5,0 C 99 % 995,5 hPa 0,0 l/m 0 min 0 min 0 W/m 22,5 km/h (4 Bft) 93,62 %
28.12.2021 03:32 6,8 C 6,1 C 5,0 C 99 % 995,5 hPa 0,0 l/m 0 min 0 min 0 W/m 19,3 km/h (3 Bft) 93,62 %
28.12.2021 03:34 6,8 C 6,1 C 5,0 C 99 % 995,5 hPa 0,0 l/m 0 min 0 min 0 W/m 16,1 km/h (3 Bft) 93,62 %
28.12.2021 03:36 6,8 C 6,1 C 5,0 C 99 % 995,5 hPa 0,0 l/m 0 min 0 min 0 W/m 12,9 km/h (3 Bft) 93,62 %
28.12.2021 03:38 6,8 C 6,1 C 5,0 C 99 % 995,5 hPa 0,0 l/m 0 min 0 min 0 W/m 16,1 km/h (3 Bft) 93,48 %
28.12.2021 03:40 6,8 C 6,7 C 5,0 C 99 % 995,5 hPa 0,0 l/m 0 min 0 min 0 W/m 16,1 km/h (3 Bft) 95,74 %
28.12.2021 03:42 6,8 C 6,7 C 5,0 C 99 % 995,4 hPa 0,0 l/m 0 min 0 min 0 W/m 19,3 km/h (3 Bft) 94,00 %
28.12.2021 03:44 6,9 C 6,7 C 5,0 C 99 % 995,4 hPa 0,0 l/m 0 min 0 min 0 W/m 12,9 km/h (3 Bft) 52,17 %
28.12.2021 03:46 6,9 C 6,7 C 5,0 C 99 % 995,4 hPa 0,0 l/m 0 min 0 min 0 W/m 16,1 km/h (3 Bft) 91,30 %
28.12.2021 03:48 6,9 C 6,7 C 5,0 C 99 % 995,5 hPa 0,0 l/m 0 min 0 min 0 W/m 19,3 km/h (3 Bft) 95,74 %
28.12.2021 03:50 6,9 C 6,7 C 5,0 C 99 % 995,4 hPa 0,0 l/m 0 min 0 min 0 W/m 16,1 km/h (3 Bft) 95,65 %
28.12.2021 03:52 6,9 C 6,7 C 5,0 C 99 % 995,4 hPa 0,0 l/m 0 min 0 min 0 W/m 16,1 km/h (3 Bft) 95,74 %
28.12.2021 03:54 6,9 C 6,7 C 5,0 C 99 % 995,4 hPa 0,0 l/m 0 min 0 min 0 W/m 19,3 km/h (3 Bft) 93,62 %
28.12.2021 03:56 7,0 C 6,7 C 5,0 C 99 % 995,3 hPa 0,0 l/m 0 min 0 min 0 W/m 9,7 km/h (2 Bft) 95,74 %
28.12.2021 03:58 6,9 C 6,7 C 5,0 C 99 % 995,3 hPa 0,0 l/m 0 min 0 min 0 W/m 16,1 km/h (3 Bft) 95,74 %
28.12.2021 04:00 7,0 C 6,7 C 5,0 C 99 % 995,2 hPa 0,0 l/m 0 min 0 min 0 W/m 12,9 km/h (3 Bft) 95,74 %
28.12.2021 04:02 7,0 C 6,7 C 5,0 C 99 % 995,2 hPa 0,0 l/m 0 min 0 min 0 W/m 16,1 km/h (3 Bft) 100,00 %
28.12.2021 04:04 7,1 C 6,7 C 5,0 C 99 % 995,3 hPa 0,0 l/m 0 min 0 min 0 W/m 19,3 km/h (3 Bft) 95,74 %
28.12.2021 04:06 7,1 C 6,7 C 5,0 C 99 % 995,2 hPa 0,0 l/m 0 min 0 min 0 W/m 16,1 km/h (3 Bft) 100,00 %
28.12.2021 04:08 7,1 C 6,7 C 5,6 C 99 % 995,3 hPa 0,0 l/m 0 min 0 min 0 W/m 16,1 km/h (3 Bft) 100,00 %
28.12.2021 04:10 7,1 C 6,7 C 5,6 C 99 % 995,3 hPa 0,2 l/m 0 min 2 min 0 W/m 22,5 km/h (4 Bft) 95,74 %
28.12.2021 04:12 7,2 C 6,7 C 5,6 C 99 % 995,3 hPa 0,0 l/m 0 min 2 min 0 W/m 19,3 km/h (3 Bft) 100,00 %
28.12.2021 04:14 7,2 C 6,7 C 5,6 C 99 % 995,2 hPa 0,0 l/m 0 min 2 min 0 W/m 16,1 km/h (3 Bft) 100,00 %
28.12.2021 04:16 7,2 C 6,7 C 5,6 C 99 % 995,2 hPa 0,0 l/m 0 min 2 min 0 W/m 16,1 km/h (3 Bft) 100,00 %
28.12.2021 04:18 7,3 C 6,7 C 5,6 C 99 % 995,2 hPa 0,0 l/m 0 min 2 min 0 W/m 16,1 km/h (3 Bft) 97,87 %
28.12.2021 04:20 7,3 C 6,7 C 5,6 C 99 % 995,2 hPa 0,0 l/m 0 min 2 min 0 W/m 16,1 km/h (3 Bft) 97,87 %
28.12.2021 04:22 7,3 C 6,7 C 5,6 C 99 % 995,2 hPa 0,0 l/m 0 min 2 min 0 W/m 16,1 km/h (3 Bft) 100,00 %
28.12.2021 04:24 7,3 C 6,7 C 5,6 C 99 % 995,1 hPa 0,0 l/m 0 min 2 min 0 W/m 16,1 km/h (3 Bft) 100,00 %
28.12.2021 04:26 7,3 C 6,7 C 5,6 C 99 % 995,2 hPa 0,0 l/m 0 min 2 min 0 W/m 16,1 km/h (3 Bft) 100,00 %
28.12.2021 04:28 7,3 C 6,7 C 5,6 C 99 % 995,2 hPa 0,0 l/m 0 min 2 min 0 W/m 22,5 km/h (4 Bft) 100,00 %
28.12.2021 04:30 7,4 C 6,7 C 5,6 C 99 % 995,2 hPa 0,0 l/m 0 min 2 min 0 W/m 19,3 km/h (3 Bft) 100,00 %
28.12.2021 04:32 7,4 C 6,7 C 5,6 C 99 % 995,2 hPa 0,2 l/m 0 min 2 min 0 W/m 16,1 km/h (3 Bft) 100,00 %
28.12.2021 04:34 7,4 C 6,7 C 5,6 C 99 % 995,1 hPa 0,0 l/m 0 min 2 min 0 W/m 16,1 km/h (3 Bft) 100,00 %
28.12.2021 04:36 7,4 C 6,7 C 5,6 C 99 % 995,1 hPa 0,0 l/m 0 min 2 min 0 W/m 16,1 km/h (3 Bft) 100,00 %
28.12.2021 04:38 7,4 C 6,7 C 5,6 C 99 % 995,1 hPa 0,0 l/m 0 min 2 min 0 W/m 12,9 km/h (3 Bft) 100,00 %
28.12.2021 04:40 7,4 C 6,7 C 5,6 C 99 % 995,0 hPa 0,0 l/m 0 min 2 min 0 W/m 12,9 km/h (3 Bft) 100,00 %
28.12.2021 04:42 7,4 C 6,7 C 5,6 C 99 % 995,0 hPa 0,0 l/m 0 min 2 min 0 W/m 22,5 km/h (4 Bft) 100,00 %
28.12.2021 04:44 7,4 C 6,7 C 5,6 C 99 % 995,0 hPa 0,0 l/m 0 min 0 min 0 W/m 16,1 km/h (3 Bft) 100,00 %
28.12.2021 04:46 7,4 C 6,7 C 5,6 C 99 % 994,9 hPa 0,0 l/m 0 min 0 min 0 W/m 16,1 km/h (3 Bft) 100,00 %
28.12.2021 04:48 7,4 C 6,7 C 5,6 C 99 % 994,9 hPa 0,0 l/m 0 min 0 min 0 W/m 16,1 km/h (3 Bft) 97,83 %
28.12.2021 04:50 7,4 C 6,7 C 5,6 C 99 % 994,9 hPa 0,0 l/m 0 min 0 min 0 W/m 12,9 km/h (3 Bft) 100,00 %
28.12.2021 04:52 7,4 C 6,7 C 5,6 C 99 % 994,9 hPa 0,0 l/m 0 min 0 min 0 W/m 12,9 km/h (3 Bft) 100,00 %
28.12.2021 04:54 7,4 C 6,7 C 5,6 C 99 % 994,9 hPa 0,0 l/m 0 min 0 min 0 W/m 16,1 km/h (3 Bft) 100,00 %
28.12.2021 04:56 7,5 C 6,7 C 5,6 C 99 % 994,8 hPa 0,0 l/m 0 min 0 min 0 W/m 22,5 km/h (4 Bft) 100,00 %
28.12.2021 04:58 7,4 C 6,7 C 5,6 C 99 % 994,8 hPa 0,0 l/m 0 min 0 min 0 W/m 19,3 km/h (3 Bft) 100,00 %
28.12.2021 05:00 7,4 C 6,7 C 5,6 C 99 % 994,8 hPa 0,0 l/m 0 min 0 min 0 W/m 19,3 km/h (3 Bft) 100,00 %
28.12.2021 05:02 7,4 C 6,7 C 5,6 C 99 % 994,8 hPa 0,0 l/m 0 min 0 min 0 W/m 22,5 km/h (4 Bft) 97,87 %
28.12.2021 05:04 7,5 C 6,7 C 5,6 C 99 % 994,8 hPa 0,0 l/m 0 min 0 min 0 W/m 19,3 km/h (3 Bft) 100,00 %
28.12.2021 05:06 7,4 C 6,7 C 5,6 C 99 % 994,8 hPa 0,0 l/m 0 min 0 min 0 W/m 12,9 km/h (3 Bft) 52,38 %
28.12.2021 05:08 7,4 C 6,7 C 5,6 C 99 % 994,7 hPa 0,0 l/m 0 min 0 min 0 W/m 19,3 km/h (3 Bft) 100,00 %
28.12.2021 05:10 7,4 C 6,7 C 5,6 C 99 % 994,6 hPa 0,0 l/m 0 min 0 min 0 W/m 12,9 km/h (3 Bft) 100,00 %
28.12.2021 05:12 7,5 C 6,7 C 5,6 C 99 % 994,7 hPa 0,0 l/m 0 min 0 min 0 W/m 16,1 km/h (3 Bft) 100,00 %
28.12.2021 05:14 7,5 C 6,7 C 5,6 C 99 % 994,6 hPa 0,0 l/m 0 min 0 min 0 W/m 12,9 km/h (3 Bft) 100,00 %
28.12.2021 05:16 7,5 C 6,7 C 5,6 C 99 % 994,5 hPa 0,0 l/m 0 min 0 min 0 W/m 16,1 km/h (3 Bft) 100,00 %
28.12.2021 05:18 7,5 C 6,7 C 5,6 C 99 % 994,5 hPa 0,0 l/m 0 min 0 min 0 W/m 9,7 km/h (2 Bft) 97,87 %
28.12.2021 05:20 7,5 C 6,7 C 5,6 C 99 % 994,5 hPa 0,0 l/m 0 min 0 min 0 W/m 16,1 km/h (3 Bft) 100,00 %
28.12.2021 05:22 7,5 C 6,7 C 5,6 C 99 % 994,5 hPa 0,0 l/m 0 min 0 min 0 W/m 19,3 km/h (3 Bft) 97,87 %
28.12.2021 05:24 7,5 C 6,7 C 5,6 C 99 % 994,5 hPa 0,0 l/m 0 min 0 min 0 W/m 22,5 km/h (4 Bft) 100,00 %
28.12.2021 05:26 7,5 C 6,7 C 5,6 C 99 % 994,4 hPa 0,0 l/m 0 min 0 min 0 W/m 16,1 km/h (3 Bft) 100,00 %
28.12.2021 05:28 7,4 C 6,7 C 5,6 C 99 % 994,4 hPa 0,0 l/m 0 min 0 min 0 W/m 16,1 km/h (3 Bft) 95,74 %
28.12.2021 05:30 7,4 C 6,7 C 5,6 C 99 % 994,4 hPa 0,0 l/m 0 min 0 min 0 W/m 16,1 km/h (3 Bft) 95,74 %
28.12.2021 05:32 7,4 C 6,7 C 5,6 C 99 % 994,3 hPa 0,0 l/m 0 min 0 min 0 W/m 12,9 km/h (3 Bft) 97,92 %
28.12.2021 05:34 7,4 C 6,7 C 5,6 C 99 % 994,4 hPa 0,0 l/m 0 min 0 min 0 W/m 16,1 km/h (3 Bft) 95,74 %
28.12.2021 05:36 7,4 C 6,7 C 5,6 C 99 % 994,3 hPa 0,0 l/m 0 min 0 min 0 W/m 19,3 km/h (3 Bft) 95,65 %
28.12.2021 05:38 7,4 C 6,7 C 5,6 C 99 % 994,3 hPa 0,0 l/m 0 min 0 min 0 W/m 16,1 km/h (3 Bft) 97,87 %
28.12.2021 05:40 7,4 C 6,7 C 5,6 C 99 % 994,3 hPa 0,0 l/m 0 min 0 min 0 W/m 12,9 km/h (3 Bft) 97,87 %
28.12.2021 05:42 7,4 C 6,7 C 5,6 C 99 % 994,4 hPa 0,0 l/m 0 min 0 min 0 W/m 12,9 km/h (3 Bft) 97,87 %
28.12.2021 05:44 7,4 C 6,7 C 5,6 C 99 % 994,4 hPa 0,0 l/m 0 min 0 min 0 W/m 16,1 km/h (3 Bft) 95,74 %
28.12.2021 05:46 7,4 C 6,7 C 5,6 C 99 % 994,3 hPa 0,0 l/m 0 min 0 min 0 W/m 9,7 km/h (2 Bft) 95,65 %
28.12.2021 05:48 7,4 C 6,7 C 5,6 C 99 % 994,3 hPa 0,0 l/m 0 min 0 min 0 W/m 12,9 km/h (3 Bft) 97,87 %
28.12.2021 05:50 7,5 C 6,7 C 5,6 C 99 % 994,3 hPa 0,0 l/m 0 min 0 min 0 W/m 16,1 km/h (3 Bft) 97,87 %
28.12.2021 05:52 7,5 C 6,7 C 5,6 C 99 % 994,3 hPa 0,0 l/m 0 min 0 min 0 W/m 16,1 km/h (3 Bft) 95,74 %
28.12.2021 05:54 7,5 C 7,2 C 5,6 C 99 % 994,3 hPa 0,0 l/m 0 min 0 min 0 W/m 19,3 km/h (3 Bft) 95,74 %
28.12.2021 05:56 7,6 C 6,7 C 5,6 C 99 % 994,3 hPa 0,0 l/m 0 min 0 min 0 W/m 9,7 km/h (2 Bft) 93,62 %
28.12.2021 05:58 7,6 C 7,2 C 5,6 C 99 % 994,3 hPa 0,0 l/m 0 min 0 min 0 W/m 12,9 km/h (3 Bft) 93,48 %
28.12.2021 06:00 7,6 C 7,2 C 5,6 C 99 % 994,3 hPa 0,0 l/m 0 min 0 min 0 W/m 9,7 km/h (2 Bft) 97,87 %
28.12.2021 06:02 7,6 C 7,2 C 5,6 C 99 % 994,3 hPa 0,0 l/m 0 min 0 min 0 W/m 16,1 km/h (3 Bft) 93,62 %
28.12.2021 06:04 7,6 C 7,2 C 6,1 C 99 % 994,3 hPa 0,0 l/m 0 min 0 min 0 W/m 19,3 km/h (3 Bft) 95,74 %
28.12.2021 06:06 7,7 C 7,2 C 6,1 C 99 % 994,2 hPa 0,0 l/m 0 min 0 min 0 W/m 19,3 km/h (3 Bft) 93,62 %
28.12.2021 06:08 7,7 C 7,2 C 6,1 C 99 % 994,1 hPa 0,0 l/m 0 min 0 min 0 W/m 16,1 km/h (3 Bft) 95,74 %
28.12.2021 06:10 7,7 C 7,2 C 6,1 C 99 % 994,2 hPa 0,0 l/m 0 min 0 min 0 W/m 16,1 km/h (3 Bft) 97,83 %
28.12.2021 06:12 7,7 C 7,2 C 6,1 C 99 % 994,1 hPa 0,0 l/m 0 min 0 min 0 W/m 12,9 km/h (3 Bft) 95,74 %
28.12.2021 06:14 7,8 C 7,2 C 6,1 C 99 % 994,1 hPa 0,0 l/m 0 min 0 min 0 W/m 16,1 km/h (3 Bft) 95,74 %
28.12.2021 06:16 7,8 C 7,2 C 6,1 C 99 % 994,2 hPa 0,0 l/m 0 min 0 min 0 W/m 12,9 km/h (3 Bft) 93,62 %
28.12.2021 06:18 7,8 C 7,2 C 6,1 C 99 % 994,1 hPa 0,0 l/m 0 min 0 min 0 W/m 16,1 km/h (3 Bft) 95,74 %
28.12.2021 06:20 7,8 C 7,2 C 6,1 C 99 % 994,1 hPa 0,0 l/m 0 min 0 min 0 W/m 19,3 km/h (3 Bft) 95,74 %
28.12.2021 06:22 7,9 C 7,2 C 6,1 C 99 % 994,1 hPa 0,0 l/m 0 min 0 min 0 W/m 16,1 km/h (3 Bft) 93,48 %
28.12.2021 06:24 7,9 C 7,2 C 6,1 C 99 % 994,1 hPa 0,0 l/m 0 min 0 min 0 W/m 22,5 km/h (4 Bft) 95,74 %
28.12.2021 06:26 7,9 C 7,2 C 6,1 C 99 % 994,1 hPa 0,0 l/m 0 min 0 min 0 W/m 16,1 km/h (3 Bft) 93,62 %
28.12.2021 06:28 7,9 C 7,2 C 6,1 C 99 % 994,1 hPa 0,0 l/m 0 min 0 min 0 W/m 19,3 km/h (3 Bft) 95,74 %
28.12.2021 06:30 7,9 C 7,2 C 6,1 C 99 % 994,1 hPa 0,0 l/m 0 min 0 min 0 W/m 19,3 km/h (3 Bft) 95,74 %
28.12.2021 06:32 7,9 C 7,2 C 6,1 C 99 % 994,2 hPa 0,0 l/m 0 min 0 min 0 W/m 19,3 km/h (3 Bft) 93,62 %
28.12.2021 06:34 8,0 C 7,2 C 6,1 C 99 % 994,2 hPa 0,0 l/m 0 min 0 min 0 W/m 16,1 km/h (3 Bft) 95,65 %
28.12.2021 06:36 8,0 C 7,2 C 6,1 C 99 % 994,1 hPa 0,0 l/m 0 min 0 min 0 W/m 16,1 km/h (3 Bft) 93,62 %
28.12.2021 06:38 8,0 C 7,2 C 6,1 C 99 % 994,1 hPa 0,0 l/m 0 min 0 min 0 W/m 16,1 km/h (3 Bft) 95,74 %
28.12.2021 06:40 8,1 C 7,8 C 6,1 C 99 % 994,0 hPa 0,0 l/m 0 min 0 min 0 W/m 12,9 km/h (3 Bft) 95,74 %
28.12.2021 06:42 8,1 C 7,2 C 6,1 C 99 % 994,0 hPa 0,0 l/m 0 min 0 min 0 W/m 12,9 km/h (3 Bft) 97,87 %
28.12.2021 06:44 8,1 C 7,2 C 6,1 C 99 % 994,1 hPa 0,0 l/m 0 min 0 min 0 W/m 16,1 km/h (3 Bft) 93,48 %
28.12.2021 06:46 8,1 C 7,8 C 6,1 C 99 % 994,1 hPa 0,0 l/m 0 min 0 min 0 W/m 19,3 km/h (3 Bft) 97,87 %
28.12.2021 06:48 8,1 C 7,8 C 6,1 C 99 % 994,0 hPa 0,0 l/m 0 min 0 min 0 W/m 19,3 km/h (3 Bft) 97,87 %
28.12.2021 06:50 8,1 C 7,8 C 6,1 C 99 % 994,0 hPa 0,0 l/m 0 min 0 min 0 W/m 16,1 km/h (3 Bft) 100,00 %
28.12.2021 06:52 8,1 C 7,2 C 6,1 C 99 % 994,0 hPa 0,0 l/m 0 min 0 min 0 W/m 12,9 km/h (3 Bft) 100,00 %
28.12.2021 06:54 8,1 C 7,2 C 6,1 C 99 % 994,0 hPa 0,0 l/m 0 min 0 min 0 W/m 12,9 km/h (3 Bft) 97,87 %
28.12.2021 06:56 8,1 C 7,8 C 6,1 C 99 % 994,0 hPa 0,0 l/m 0 min 0 min 0 W/m 16,1 km/h (3 Bft) 100,00 %
28.12.2021 06:58 8,1 C 7,2 C 6,1 C 99 % 994,0 hPa 0,0 l/m 0 min 0 min 0 W/m 16,1 km/h (3 Bft) 100,00 %
28.12.2021 07:00 8,1 C 7,2 C 6,1 C 99 % 994,0 hPa 0,0 l/m 0 min 0 min 0 W/m 19,3 km/h (3 Bft) 100,00 %
28.12.2021 07:02 8,1 C 7,2 C 6,1 C 99 % 993,9 hPa 0,0 l/m 0 min 0 min 0 W/m 16,1 km/h (3 Bft) 94,44 %
28.12.2021 07:04 8,1 C 7,2 C 6,1 C 99 % 994,0 hPa 0,0 l/m 0 min 0 min 0 W/m 16,1 km/h (3 Bft) 100,00 %
28.12.2021 07:06 8,1 C 7,2 C 6,1 C 99 % 994,0 hPa 0,0 l/m 0 min 0 min 0 W/m 22,5 km/h (4 Bft) 100,00 %
28.12.2021 07:08 8,1 C 7,2 C 6,1 C 99 % 994,0 hPa 0,0 l/m 0 min 0 min 0 W/m 22,5 km/h (4 Bft) 100,00 %
28.12.2021 07:10 8,1 C 7,2 C 6,1 C 99 % 994,0 hPa 0,0 l/m 0 min 0 min 0 W/m 12,9 km/h (3 Bft) 97,87 %
28.12.2021 07:12 8,1 C 7,2 C 6,7 C 99 % 993,9 hPa 0,0 l/m 0 min 0 min 0 W/m 16,1 km/h (3 Bft) 97,83 %
28.12.2021 07:14 8,1 C 7,2 C 6,7 C 99 % 993,9 hPa 0,0 l/m 0 min 0 min 0 W/m 29,0 km/h (5 Bft) 97,87 %
28.12.2021 07:16 8,1 C 7,2 C 6,7 C 99 % 993,8 hPa 0,0 l/m 0 min 0 min 0 W/m 12,9 km/h (3 Bft) 100,00 %
28.12.2021 07:18 8,1 C 7,2 C 6,1 C 99 % 993,8 hPa 0,0 l/m 0 min 0 min 0 W/m 12,9 km/h (3 Bft) 100,00 %
28.12.2021 07:20 8,1 C 7,2 C 6,1 C 99 % 993,8 hPa 0,0 l/m 0 min 0 min 0 W/m 12,9 km/h (3 Bft) 97,87 %
28.12.2021 07:22 8,1 C 7,2 C 6,1 C 99 % 993,8 hPa 0,0 l/m 0 min 0 min 0 W/m 16,1 km/h (3 Bft) 100,00 %
28.12.2021 07:24 8,1 C 7,2 C 6,1 C 99 % 993,9 hPa 0,0 l/m 0 min 0 min 0 W/m 16,1 km/h (3 Bft) 100,00 %
28.12.2021 07:26 8,1 C 7,2 C 6,1 C 99 % 993,8 hPa 0,0 l/m 0 min 0 min 0 W/m 12,9 km/h (3 Bft) 97,87 %
28.12.2021 07:28 8,1 C 7,2 C 6,1 C 99 % 993,8 hPa 0,0 l/m 0 min 0 min 0 W/m 12,9 km/h (3 Bft) 97,87 %
28.12.2021 07:30 8,1 C 7,2 C 6,1 C 99 % 993,9 hPa 0,0 l/m 0 min 0 min 0 W/m 12,9 km/h (3 Bft) 97,87 %
28.12.2021 07:32 8,1 C 7,2 C 6,1 C 99 % 993,8 hPa 0,0 l/m 0 min 0 min 0 W/m 12,9 km/h (3 Bft) 97,92 %
28.12.2021 07:34 8,1 C 7,2 C 6,1 C 99 % 993,8 hPa 0,0 l/m 0 min 0 min 0 W/m 19,3 km/h (3 Bft) 97,87 %
28.12.2021 07:36 8,1 C 7,2 C 6,1 C 99 % 993,8 hPa 0,0 l/m 0 min 0 min 0 W/m 12,9 km/h (3 Bft) 97,83 %
28.12.2021 07:38 8,1 C 7,2 C 6,1 C 99 % 993,8 hPa 0,0 l/m 0 min 0 min 0 W/m 12,9 km/h (3 Bft) 97,87 %
28.12.2021 07:40 8,1 C 7,2 C 6,1 C 99 % 993,8 hPa 0,0 l/m 0 min 0 min 0 W/m 16,1 km/h (3 Bft) 97,87 %
28.12.2021 07:42 8,1 C 7,2 C 6,1 C 99 % 993,9 hPa 0,0 l/m 0 min 0 min 0 W/m 16,1 km/h (3 Bft) 95,74 %
28.12.2021 07:44 8,1 C 7,2 C 6,1 C 99 % 993,9 hPa 0,0 l/m 0 min 0 min 0 W/m 16,1 km/h (3 Bft) 95,74 %
28.12.2021 07:46 8,1 C 7,2 C 6,1 C 99 % 993,9 hPa 0,0 l/m 0 min 0 min 0 W/m 16,1 km/h (3 Bft) 97,83 %
28.12.2021 07:48 8,1 C 7,2 C 6,1 C 99 % 994,0 hPa 0,0 l/m 0 min 0 min 0 W/m 12,9 km/h (3 Bft) 97,87 %
28.12.2021 07:50 8,1 C 7,2 C 6,1 C 99 % 993,9 hPa 0,0 l/m 0 min 0 min 0 W/m 12,9 km/h (3 Bft) 97,87 %
28.12.2021 07:52 8,1 C 7,2 C 6,1 C 99 % 993,9 hPa 0,0 l/m 0 min 0 min 0 W/m 16,1 km/h (3 Bft) 95,74 %
28.12.2021 07:54 8,1 C 7,2 C 6,1 C 99 % 994,0 hPa 0,0 l/m 0 min 0 min 0 W/m 16,1 km/h (3 Bft) 95,74 %
28.12.2021 07:56 8,1 C 7,2 C 6,7 C 99 % 994,0 hPa 0,0 l/m 0 min 0 min 0 W/m 16,1 km/h (3 Bft) 95,74 %
28.12.2021 07:58 8,1 C 7,2 C 6,7 C 99 % 994,0 hPa 0,0 l/m 0 min 0 min 0 W/m 16,1 km/h (3 Bft) 52,38 %
28.12.2021 08:00 8,1 C 7,2 C 6,7 C 99 % 993,9 hPa 0,0 l/m 0 min 0 min 0 W/m 16,1 km/h (3 Bft) 100,00 %
28.12.2021 08:02 8,1 C 7,8 C 6,7 C 99 % 993,9 hPa 0,0 l/m 0 min 0 min 0 W/m 25,7 km/h (4 Bft) 100,00 %
28.12.2021 08:04 8,1 C 7,8 C 6,7 C 99 % 993,9 hPa 0,0 l/m 0 min 0 min 0 W/m 12,9 km/h (3 Bft) 100,00 %
28.12.2021 08:06 8,1 C 7,8 C 6,7 C 99 % 993,9 hPa 0,0 l/m 0 min 0 min 0 W/m 22,5 km/h (4 Bft) 100,00 %
28.12.2021 08:08 8,1 C 7,8 C 6,7 C 99 % 993,9 hPa 0,0 l/m 0 min 0 min 0 W/m 19,3 km/h (3 Bft) 100,00 %
28.12.2021 08:10 8,1 C 7,8 C 6,7 C 99 % 993,9 hPa 0,0 l/m 0 min 0 min 0 W/m 16,1 km/h (3 Bft) 100,00 %
28.12.2021 08:12 8,2 C 7,8 C 6,7 C 99 % 993,9 hPa 0,0 l/m 0 min 0 min 0 W/m 16,1 km/h (3 Bft) 100,00 %
28.12.2021 08:14 8,2 C 7,8 C 6,7 C 99 % 993,9 hPa 0,0 l/m 0 min 0 min 0 W/m 16,1 km/h (3 Bft) 100,00 %
28.12.2021 08:16 8,2 C 7,8 C 6,7 C 99 % 993,9 hPa 0,0 l/m 0 min 0 min 0 W/m 19,3 km/h (3 Bft) 100,00 %
28.12.2021 08:18 8,2 C 7,8 C 6,7 C 99 % 993,9 hPa 0,0 l/m 0 min 0 min 0 W/m 19,3 km/h (3 Bft) 97,87 %
28.12.2021 08:20 8,2 C 7,8 C 6,7 C 99 % 993,8 hPa 0,0 l/m 0 min 0 min 0 W/m 22,5 km/h (4 Bft) 100,00 %
28.12.2021 08:22 8,2 C 7,8 C 6,7 C 99 % 993,8 hPa 0,0 l/m 0 min 0 min 0 W/m 22,5 km/h (4 Bft) 100,00 %
28.12.2021 08:24 8,2 C 7,8 C 6,7 C 99 % 993,8 hPa 0,0 l/m 0 min 0 min 0 W/m 19,3 km/h (3 Bft) 97,87 %
28.12.2021 08:26 8,2 C 7,8 C 6,7 C 99 % 993,8 hPa 0,0 l/m 0 min 0 min 0 W/m 19,3 km/h (3 Bft) 100,00 %
28.12.2021 08:28 8,2 C 7,8 C 6,7 C 99 % 993,8 hPa 0,0 l/m 0 min 0 min 0 W/m 16,1 km/h (3 Bft) 100,00 %
28.12.2021 08:30 8,2 C 7,2 C 6,7 C 99 % 993,7 hPa 0,0 l/m 0 min 0 min 0 W/m 16,1 km/h (3 Bft) 97,87 %
28.12.2021 08:32 8,2 C 7,2 C 6,7 C 99 % 993,6 hPa 0,0 l/m 0 min 0 min 0 W/m 16,1 km/h (3 Bft) 97,87 %
28.12.2021 08:34 8,1 C 7,2 C 6,7 C 99 % 993,5 hPa 0,0 l/m 0 min 0 min 0 W/m 16,1 km/h (3 Bft) 97,83 %
28.12.2021 08:36 8,1 C 7,2 C 6,1 C 99 % 993,5 hPa 0,0 l/m 0 min 0 min 0 W/m 16,1 km/h (3 Bft) 100,00 %
28.12.2021 08:38 8,1 C 7,2 C 6,1 C 99 % 993,4 hPa 0,0 l/m 0 min 0 min 0 W/m 19,3 km/h (3 Bft) 100,00 %
28.12.2021 08:40 8,1 C 7,2 C 6,1 C 99 % 993,4 hPa 0,0 l/m 0 min 0 min 0 W/m 16,1 km/h (3 Bft) 100,00 %
28.12.2021 08:42 8,0 C 7,2 C 6,1 C 99 % 993,4 hPa 0,0 l/m 0 min 0 min 0 W/m 16,1 km/h (3 Bft) 97,87 %
28.12.2021 08:44 8,0 C 7,2 C 6,1 C 99 % 993,5 hPa 0,0 l/m 0 min 0 min 3 W/m 19,3 km/h (3 Bft) 97,87 %
28.12.2021 08:46 7,9 C 7,2 C 6,1 C 99 % 993,5 hPa 0,0 l/m 0 min 0 min 5 W/m 19,3 km/h (3 Bft) 93,48 %
28.12.2021 08:48 7,9 C 7,2 C 6,1 C 99 % 993,6 hPa 0,0 l/m 0 min 0 min 5 W/m 16,1 km/h (3 Bft) 97,87 %
28.12.2021 08:50 7,9 C 7,2 C 6,1 C 99 % 993,6 hPa 0,0 l/m 0 min 0 min 5 W/m 19,3 km/h (3 Bft) 95,74 %
28.12.2021 08:52 7,9 C 7,2 C 6,1 C 99 % 993,7 hPa 0,0 l/m 0 min 0 min 6 W/m 16,1 km/h (3 Bft) 93,62 %
28.12.2021 08:54 7,9 C 7,2 C 6,1 C 99 % 993,7 hPa 0,0 l/m 0 min 0 min 8 W/m 12,9 km/h (3 Bft) 93,62 %
28.12.2021 08:56 7,9 C 7,2 C 6,1 C 99 % 993,7 hPa 0,0 l/m 0 min 0 min 14 W/m 16,1 km/h (3 Bft) 95,74 %
28.12.2021 08:58 7,9 C 7,2 C 6,1 C 99 % 993,8 hPa 0,0 l/m 0 min 0 min 18 W/m 16,1 km/h (3 Bft) 95,65 %
28.12.2021 09:00 7,9 C 7,2 C 6,1 C 99 % 993,8 hPa 0,0 l/m 2 min 0 min 21 W/m 12,9 km/h (3 Bft) 95,74 %
28.12.2021 09:02 7,9 C 7,2 C 6,1 C 99 % 993,8 hPa 0,0 l/m 0 min 0 min 16 W/m 22,5 km/h (4 Bft) 93,62 %
28.12.2021 09:04 7,9 C 7,2 C 6,1 C 99 % 993,8 hPa 0,0 l/m 0 min 0 min 14 W/m 16,1 km/h (3 Bft) 96,55 %
28.12.2021 09:06 7,9 C 7,2 C 6,7 C 99 % 993,9 hPa 0,0 l/m 0 min 0 min 14 W/m 16,1 km/h (3 Bft) 95,65 %
28.12.2021 09:08 7,9 C 7,2 C 6,7 C 99 % 993,9 hPa 0,0 l/m 0 min 0 min 14 W/m 16,1 km/h (3 Bft) 95,74 %
28.12.2021 09:10 8,0 C 7,2 C 6,7 C 99 % 993,9 hPa 0,0 l/m 0 min 0 min 12 W/m 16,1 km/h (3 Bft) 95,74 %
28.12.2021 09:12 8,0 C 7,2 C 6,7 C 99 % 993,9 hPa 0,0 l/m 0 min 0 min 11 W/m 9,7 km/h (2 Bft) 91,49 %
28.12.2021 09:14 8,0 C 7,2 C 6,7 C 99 % 994,0 hPa 0,0 l/m 0 min 0 min 11 W/m 12,9 km/h (3 Bft) 95,74 %
28.12.2021 09:16 8,1 C 7,2 C 6,7 C 99 % 993,9 hPa 0,0 l/m 0 min 0 min 11 W/m 19,3 km/h (3 Bft) 93,62 %
28.12.2021 09:18 8,1 C 7,8 C 6,7 C 99 % 994,0 hPa 0,0 l/m 0 min 0 min 11 W/m 16,1 km/h (3 Bft) 93,48 %
28.12.2021 09:20 8,1 C 7,8 C 6,7 C 99 % 994,0 hPa 0,0 l/m 0 min 0 min 13 W/m 16,1 km/h (3 Bft) 93,62 %
28.12.2021 09:22 8,1 C 7,8 C 6,7 C 99 % 994,0 hPa 0,0 l/m 0 min 0 min 16 W/m 12,9 km/h (3 Bft) 91,49 %
28.12.2021 09:24 8,1 C 7,8 C 6,7 C 99 % 994,0 hPa 0,0 l/m 0 min 0 min 16 W/m 16,1 km/h (3 Bft) 93,62 %
28.12.2021 09:26 8,1 C 7,8 C 6,7 C 99 % 994,0 hPa 0,0 l/m 0 min 0 min 18 W/m 22,5 km/h (4 Bft) 93,62 %
28.12.2021 09:28 8,1 C 7,8 C 6,7 C 99 % 993,9 hPa 0,0 l/m 0 min 0 min 19 W/m 6,4 km/h (2 Bft) 95,65 %
28.12.2021 09:30 8,1 C 7,8 C 6,7 C 99 % 993,9 hPa 0,0 l/m 0 min 0 min 26 W/m 6,4 km/h (2 Bft) 95,74 %
28.12.2021 09:32 8,1 C 7,8 C 6,7 C 99 % 993,9 hPa 0,0 l/m 0 min 0 min 32 W/m 19,3 km/h (3 Bft) 95,74 %
28.12.2021 09:34 8,1 C 7,8 C 6,7 C 99 % 993,9 hPa 0,0 l/m 0 min 0 min 35 W/m 16,1 km/h (3 Bft) 95,74 %
28.12.2021 09:36 8,1 C 7,8 C 6,7 C 99 % 993,8 hPa 0,0 l/m 0 min 0 min 39 W/m 16,1 km/h (3 Bft) 95,74 %
28.12.2021 09:38 8,1 C 7,8 C 6,7 C 99 % 993,8 hPa 0,0 l/m 0 min 0 min 35 W/m 22,5 km/h (4 Bft) 95,74 %
28.12.2021 09:40 8,1 C 7,8 C 6,7 C 99 % 993,8 hPa 0,0 l/m 0 min 0 min 30 W/m 12,9 km/h (3 Bft) 95,65 %
28.12.2021 09:42 8,1 C 7,8 C 6,7 C 99 % 993,8 hPa 0,0 l/m 0 min 0 min 32 W/m 12,9 km/h (3 Bft) 97,87 %
28.12.2021 09:44 8,2 C 7,8 C 6,7 C 99 % 993,8 hPa 0,0 l/m 0 min 0 min 33 W/m 16,1 km/h (3 Bft) 95,74 %
28.12.2021 09:46 8,2 C 7,8 C 6,7 C 99 % 993,8 hPa 0,0 l/m 0 min 0 min 36 W/m 12,9 km/h (3 Bft) 97,87 %
28.12.2021 09:48 8,2 C 7,8 C 6,7 C 99 % 993,7 hPa 0,0 l/m 0 min 0 min 39 W/m 16,1 km/h (3 Bft) 97,87 %
28.12.2021 09:50 8,2 C 7,8 C 6,7 C 99 % 993,7 hPa 0,0 l/m 0 min 0 min 40 W/m 12,9 km/h (3 Bft) 97,87 %
28.12.2021 09:52 8,2 C 7,8 C 6,7 C 99 % 993,8 hPa 0,0 l/m 0 min 0 min 41 W/m 19,3 km/h (3 Bft) 95,65 %
28.12.2021 09:54 8,2 C 7,8 C 6,7 C 99 % 993,8 hPa 0,0 l/m 0 min 0 min 29 W/m 22,5 km/h (4 Bft) 100,00 %
28.12.2021 09:56 8,2 C 7,8 C 6,7 C 99 % 993,7 hPa 0,0 l/m 0 min 0 min 25 W/m 16,1 km/h (3 Bft) 100,00 %
28.12.2021 09:58 8,3 C 7,8 C 6,7 C 99 % 993,8 hPa 0,0 l/m 0 min 0 min 27 W/m 16,1 km/h (3 Bft) 100,00 %
28.12.2021 10:00 8,3 C 7,8 C 6,7 C 99 % 993,8 hPa 0,0 l/m 0 min 0 min 24 W/m 22,5 km/h (4 Bft) 100,00 %
28.12.2021 10:02 8,3 C 7,8 C 6,7 C 99 % 993,8 hPa 0,0 l/m 0 min 0 min 25 W/m 19,3 km/h (3 Bft) 100,00 %
28.12.2021 10:04 8,3 C 7,8 C 6,7 C 99 % 993,8 hPa 0,0 l/m 0 min 0 min 28 W/m 19,3 km/h (3 Bft) 100,00 %
28.12.2021 10:06 8,3 C 7,8 C 6,7 C 99 % 993,8 hPa 0,0 l/m 0 min 0 min 31 W/m 16,1 km/h (3 Bft) 100,00 %
28.12.2021 10:08 8,3 C 7,8 C 6,7 C 99 % 993,7 hPa 0,0 l/m 0 min 0 min 32 W/m 16,1 km/h (3 Bft) 100,00 %
28.12.2021 10:10 8,3 C 7,8 C 6,7 C 99 % 993,7 hPa 0,0 l/m 0 min 0 min 33 W/m 12,9 km/h (3 Bft) 97,87 %
28.12.2021 10:12 8,3 C 7,8 C 6,7 C 99 % 993,7 hPa 0,0 l/m 0 min 0 min 35 W/m 16,1 km/h (3 Bft) 97,87 %
28.12.2021 10:14 8,3 C 7,8 C 6,7 C 99 % 993,6 hPa 0,0 l/m 0 min 0 min 41 W/m 16,1 km/h (3 Bft) 100,00 %
28.12.2021 10:16 8,3 C 7,8 C 6,7 C 99 % 993,5 hPa 0,0 l/m 0 min 0 min 52 W/m 12,9 km/h (3 Bft) 100,00 %
28.12.2021 10:18 8,3 C 7,8 C 6,7 C 99 % 993,5 hPa 0,0 l/m 0 min 0 min 58 W/m 12,9 km/h (3 Bft) 100,00 %
28.12.2021 10:20 8,3 C 7,8 C 6,7 C 99 % 993,5 hPa 0,0 l/m 0 min 0 min 54 W/m 16,1 km/h (3 Bft) 100,00 %
28.12.2021 10:22 8,3 C 7,8 C 7,2 C 99 % 993,6 hPa 0,0 l/m 0 min 0 min 46 W/m 19,3 km/h (3 Bft) 100,00 %
28.12.2021 10:24 8,4 C 7,8 C 7,2 C 99 % 993,6 hPa 0,0 l/m 0 min 0 min 41 W/m 6,4 km/h (2 Bft) 100,00 %
28.12.2021 10:26 8,4 C 7,8 C 7,2 C 99 % 993,6 hPa 0,0 l/m 0 min 0 min 37 W/m 12,9 km/h (3 Bft) 100,00 %
28.12.2021 10:28 8,4 C 7,8 C 7,2 C 99 % 993,6 hPa 0,0 l/m 0 min 0 min 35 W/m 16,1 km/h (3 Bft) 97,87 %
28.12.2021 10:30 8,4 C 7,8 C 7,2 C 99 % 993,6 hPa 0,0 l/m 0 min 0 min 38 W/m 16,1 km/h (3 Bft) 100,00 %
28.12.2021 10:32 8,4 C 7,8 C 7,2 C 99 % 993,6 hPa 0,2 l/m 0 min 0 min 38 W/m 16,1 km/h (3 Bft) 100,00 %
28.12.2021 10:34 8,4 C 7,8 C 7,2 C 99 % 993,5 hPa 0,0 l/m 0 min 2 min 38 W/m 12,9 km/h (3 Bft) 100,00 %
28.12.2021 10:36 8,4 C 7,8 C 7,2 C 99 % 993,5 hPa 0,0 l/m 0 min 0 min 41 W/m 12,9 km/h (3 Bft) 97,87 %
28.12.2021 10:38 8,4 C 7,8 C 7,2 C 99 % 993,5 hPa 0,0 l/m 0 min 0 min 44 W/m 16,1 km/h (3 Bft) 100,00 %
28.12.2021 10:40 8,4 C 7,8 C 7,2 C 99 % 993,5 hPa 0,0 l/m 0 min 0 min 44 W/m 12,9 km/h (3 Bft) 100,00 %
28.12.2021 10:42 8,5 C 7,8 C 7,2 C 99 % 993,5 hPa 0,0 l/m 0 min 0 min 41 W/m 22,5 km/h (4 Bft) 100,00 %
28.12.2021 10:44 8,5 C 7,8 C 7,2 C 99 % 993,5 hPa 0,0 l/m 0 min 0 min 37 W/m 12,9 km/h (3 Bft) 100,00 %
28.12.2021 10:46 8,5 C 7,8 C 7,2 C 99 % 993,5 hPa 0,0 l/m 0 min 0 min 39 W/m 16,1 km/h (3 Bft) 100,00 %
28.12.2021 10:48 8,5 C 7,8 C 7,2 C 99 % 993,5 hPa 0,0 l/m 0 min 0 min 42 W/m 16,1 km/h (3 Bft) 97,87 %
28.12.2021 10:50 8,5 C 8,3 C 7,2 C 99 % 993,5 hPa 0,0 l/m 0 min 0 min 42 W/m 16,1 km/h (3 Bft) 100,00 %
28.12.2021 10:52 8,5 C 8,3 C 7,2 C 99 % 993,5 hPa 0,0 l/m 0 min 0 min 42 W/m 12,9 km/h (3 Bft) 97,87 %
28.12.2021 10:54 8,6 C 8,3 C 7,2 C 99 % 993,6 hPa 0,0 l/m 0 min 0 min 39 W/m 6,4 km/h (2 Bft) 100,00 %
28.12.2021 10:56 8,6 C 8,3 C 7,2 C 99 % 993,5 hPa 0,0 l/m 0 min 0 min 39 W/m 12,9 km/h (3 Bft) 100,00 %
28.12.2021 10:58 8,6 C 7,8 C 7,2 C 99 % 993,5 hPa 0,0 l/m 0 min 2 min 40 W/m 16,1 km/h (3 Bft) 100,00 %
28.12.2021 11:00 8,6 C 7,8 C 7,2 C 99 % 993,5 hPa 0,0 l/m 0 min 2 min 41 W/m 16,1 km/h (3 Bft) 100,00 %
28.12.2021 11:02 8,6 C 7,8 C 7,2 C 99 % 993,5 hPa 0,0 l/m 0 min 2 min 44 W/m 19,3 km/h (3 Bft) 100,00 %
28.12.2021 11:04 8,6 C 7,8 C 7,2 C 99 % 993,5 hPa 0,0 l/m 0 min 2 min 48 W/m 22,5 km/h (4 Bft) 100,00 %
28.12.2021 11:06 8,6 C 7,8 C 7,2 C 99 % 993,4 hPa 0,0 l/m 0 min 0 min 47 W/m 16,1 km/h (3 Bft) 97,87 %
28.12.2021 11:08 8,6 C 7,8 C 7,2 C 99 % 993,4 hPa 0,0 l/m 0 min 0 min 45 W/m 16,1 km/h (3 Bft) 97,87 %
28.12.2021 11:10 8,6 C 7,8 C 7,2 C 99 % 993,4 hPa 0,0 l/m 0 min 0 min 47 W/m 12,9 km/h (3 Bft) 100,00 %
28.12.2021 11:12 8,6 C 7,8 C 7,2 C 99 % 993,3 hPa 0,0 l/m 0 min 0 min 52 W/m 22,5 km/h (4 Bft) 100,00 %
28.12.2021 11:14 8,6 C 7,8 C 7,2 C 99 % 993,3 hPa 0,0 l/m 0 min 0 min 57 W/m 12,9 km/h (3 Bft) 100,00 %
28.12.2021 11:16 8,6 C 7,8 C 7,2 C 99 % 993,3 hPa 0,2 l/m 0 min 0 min 57 W/m 16,1 km/h (3 Bft) 97,87 %
28.12.2021 11:18 8,7 C 8,3 C 7,2 C 99 % 993,3 hPa 0,0 l/m 0 min 0 min 60 W/m 16,1 km/h (3 Bft) 97,87 %
28.12.2021 11:20 8,7 C 8,3 C 7,2 C 99 % 993,2 hPa 0,0 l/m 0 min 0 min 65 W/m 12,9 km/h (3 Bft) 97,87 %
28.12.2021 11:22 8,7 C 8,3 C 7,2 C 99 % 993,1 hPa 0,0 l/m 0 min 0 min 62 W/m 16,1 km/h (3 Bft) 97,87 %
28.12.2021 11:24 8,7 C 8,3 C 7,2 C 99 % 993,1 hPa 0,0 l/m 0 min 0 min 54 W/m 16,1 km/h (3 Bft) 93,62 %
28.12.2021 11:26 8,7 C 8,3 C 7,2 C 99 % 993,0 hPa 0,0 l/m 0 min 0 min 53 W/m 12,9 km/h (3 Bft) 95,65 %
28.12.2021 11:28 8,8 C 8,3 C 7,2 C 99 % 993,0 hPa 0,0 l/m 0 min 0 min 59 W/m 12,9 km/h (3 Bft) 93,62 %
28.12.2021 11:30 8,8 C 8,3 C 7,2 C 99 % 993,0 hPa 0,0 l/m 0 min 0 min 64 W/m 12,9 km/h (3 Bft) 95,74 %
28.12.2021 11:32 8,8 C 8,3 C 7,2 C 99 % 992,9 hPa 0,0 l/m 0 min 0 min 70 W/m 12,9 km/h (3 Bft) 93,62 %
28.12.2021 11:34 8,8 C 8,3 C 7,2 C 99 % 992,9 hPa 0,0 l/m 0 min 0 min 70 W/m 16,1 km/h (3 Bft) 95,74 %
28.12.2021 11:36 8,8 C 8,3 C 7,2 C 99 % 992,9 hPa 0,0 l/m 0 min 0 min 75 W/m 16,1 km/h (3 Bft) 97,83 %
28.12.2021 11:38 8,8 C 8,3 C 7,8 C 99 % 992,9 hPa 0,0 l/m 0 min 0 min 76 W/m 12,9 km/h (3 Bft) 95,74 %
28.12.2021 11:40 8,9 C 8,3 C 7,8 C 99 % 992,8 hPa 0,0 l/m 0 min 0 min 64 W/m 16,1 km/h (3 Bft) 97,87 %
28.12.2021 11:42 8,9 C 8,3 C 7,8 C 99 % 992,8 hPa 0,0 l/m 0 min 0 min 67 W/m 16,1 km/h (3 Bft) 95,74 %
28.12.2021 11:44 8,9 C 8,3 C 7,8 C 99 % 992,8 hPa 0,0 l/m 0 min 0 min 70 W/m 12,9 km/h (3 Bft) 95,74 %
28.12.2021 11:46 8,9 C 8,9 C 7,8 C 99 % 992,7 hPa 0,0 l/m 0 min 0 min 71 W/m 12,9 km/h (3 Bft) 93,62 %
28.12.2021 11:48 9,0 C 8,9 C 7,8 C 99 % 992,7 hPa 0,0 l/m 0 min 0 min 73 W/m 22,5 km/h (4 Bft) 95,65 %
28.12.2021 11:50 9,0 C 8,9 C 7,8 C 99 % 992,6 hPa 0,0 l/m 0 min 0 min 62 W/m 16,1 km/h (3 Bft) 91,49 %
28.12.2021 11:52 9,1 C 8,9 C 7,8 C 99 % 992,7 hPa 0,0 l/m 0 min 0 min 47 W/m 12,9 km/h (3 Bft) 91,49 %
28.12.2021 11:54 9,1 C 8,9 C 7,8 C 99 % 992,6 hPa 0,0 l/m 0 min 0 min 54 W/m 12,9 km/h (3 Bft) 95,74 %
28.12.2021 11:56 9,1 C 8,9 C 7,8 C 99 % 992,6 hPa 0,0 l/m 0 min 0 min 66 W/m 6,4 km/h (2 Bft) 95,74 %
28.12.2021 11:58 9,1 C 8,9 C 7,8 C 99 % 992,5 hPa 0,0 l/m 0 min 0 min 75 W/m 16,1 km/h (3 Bft) 95,74 %
28.12.2021 12:00 9,1 C 8,9 C 7,8 C 99 % 992,4 hPa 0,0 l/m 0 min 0 min 74 W/m 12,9 km/h (3 Bft) 95,65 %
28.12.2021 12:02 9,1 C 8,9 C 7,8 C 99 % 992,4 hPa 0,0 l/m 0 min 0 min 68 W/m 19,3 km/h (3 Bft) 95,74 %
28.12.2021 12:04 9,2 C 8,9 C 7,8 C 99 % 992,4 hPa 0,0 l/m 0 min 0 min 75 W/m 12,9 km/h (3 Bft) 93,62 %
28.12.2021 12:08 9,2 C 8,9 C 7,8 C 99 % 992,3 hPa 0,0 l/m 0 min 0 min 68 W/m 16,1 km/h (3 Bft) 97,87 %
28.12.2021 12:10 9,2 C 8,9 C 7,8 C 100 % 992,3 hPa 0,0 l/m 0 min 0 min 60 W/m 19,3 km/h (3 Bft) 95,74 %
28.12.2021 12:12 9,2 C 8,9 C 7,8 C 100 % 992,3 hPa 0,0 l/m 0 min 0 min 61 W/m 16,1 km/h (3 Bft) 97,83 %
28.12.2021 12:14 9,3 C 8,9 C 7,8 C 100 % 992,2 hPa 0,0 l/m 0 min 0 min 64 W/m 19,3 km/h (3 Bft) 97,87 %
28.12.2021 12:16 9,3 C 8,9 C 7,8 C 100 % 992,1 hPa 0,0 l/m 0 min 0 min 65 W/m 12,9 km/h (3 Bft) 97,87 %
28.12.2021 12:18 9,3 C 8,9 C 7,8 C 99 % 992,1 hPa 0,0 l/m 0 min 0 min 80 W/m 12,9 km/h (3 Bft) 97,87 %
28.12.2021 12:20 9,3 C 8,9 C 7,8 C 99 % 992,1 hPa 0,0 l/m 0 min 0 min 86 W/m 19,3 km/h (3 Bft) 97,87 %
28.12.2021 12:22 9,3 C 9,4 C 7,8 C 99 % 992,1 hPa 0,0 l/m 0 min 0 min 85 W/m 16,1 km/h (3 Bft) 97,87 %
28.12.2021 12:24 9,4 C 9,4 C 7,8 C 99 % 992,1 hPa 0,0 l/m 0 min 0 min 100 W/m 12,9 km/h (3 Bft) 97,83 %
28.12.2021 12:26 9,4 C 9,4 C 8,3 C 99 % 992,0 hPa 0,0 l/m 0 min 0 min 100 W/m 16,1 km/h (3 Bft) 95,74 %
28.12.2021 12:28 9,4 C 9,4 C 8,3 C 99 % 992,0 hPa 0,0 l/m 0 min 0 min 76 W/m 16,1 km/h (3 Bft) 97,87 %
28.12.2021 12:30 9,6 C 9,4 C 8,3 C 99 % 992,1 hPa 0,0 l/m 0 min 0 min 62 W/m 16,1 km/h (3 Bft) 97,87 %
28.12.2021 12:32 9,6 C 9,4 C 8,3 C 99 % 992,0 hPa 0,0 l/m 0 min 0 min 53 W/m 12,9 km/h (3 Bft) 97,87 %
28.12.2021 12:34 9,6 C 9,4 C 8,3 C 100 % 992,0 hPa 0,0 l/m 0 min 0 min 44 W/m 16,1 km/h (3 Bft) 100,00 %
28.12.2021 12:36 9,7 C 9,4 C 8,3 C 100 % 991,9 hPa 0,0 l/m 0 min 0 min 39 W/m 16,1 km/h (3 Bft) 97,87 %
28.12.2021 12:38 9,7 C 9,4 C 8,3 C 100 % 991,9 hPa 0,0 l/m 0 min 2 min 36 W/m 12,9 km/h (3 Bft) 100,00 %
28.12.2021 12:40 9,7 C 9,4 C 8,3 C 100 % 991,8 hPa 0,2 l/m 0 min 2 min 43 W/m 16,1 km/h (3 Bft) 100,00 %
28.12.2021 12:42 9,7 C 9,4 C 8,3 C 100 % 991,8 hPa 0,0 l/m 0 min 2 min 50 W/m 19,3 km/h (3 Bft) 100,00 %
28.12.2021 12:44 9,8 C 9,4 C 8,3 C 99 % 991,8 hPa 0,0 l/m 0 min 2 min 56 W/m 19,3 km/h (3 Bft) 97,87 %
28.12.2021 12:46 9,8 C 9,4 C 8,3 C 99 % 991,7 hPa 0,0 l/m 0 min 2 min 57 W/m 16,1 km/h (3 Bft) 100,00 %
28.12.2021 12:48 9,8 C 9,4 C 8,3 C 99 % 991,7 hPa 0,0 l/m 0 min 2 min 51 W/m 16,1 km/h (3 Bft) 100,00 %
28.12.2021 12:50 9,8 C 9,4 C 8,3 C 99 % 991,6 hPa 0,0 l/m 0 min 2 min 40 W/m 16,1 km/h (3 Bft) 100,00 %
28.12.2021 12:52 9,8 C 9,4 C 8,3 C 99 % 991,6 hPa 0,2 l/m 0 min 2 min 37 W/m 16,1 km/h (3 Bft) 97,87 %
28.12.2021 12:54 9,9 C 9,4 C 8,3 C 99 % 991,6 hPa 0,0 l/m 0 min 2 min 37 W/m 19,3 km/h (3 Bft) 100,00 %
28.12.2021 12:56 9,9 C 9,4 C 8,3 C 99 % 991,5 hPa 0,2 l/m 0 min 2 min 40 W/m 22,5 km/h (4 Bft) 97,87 %
28.12.2021 12:58 9,9 C 9,4 C 8,3 C 99 % 991,4 hPa 0,0 l/m 0 min 0 min 44 W/m 16,1 km/h (3 Bft) 100,00 %
28.12.2021 13:00 9,9 C 9,4 C 8,3 C 99 % 991,4 hPa 0,0 l/m 0 min 2 min 43 W/m 12,9 km/h (3 Bft) 100,00 %
28.12.2021 13:02 9,9 C 9,4 C 8,3 C 99 % 991,3 hPa 0,0 l/m 0 min 2 min 46 W/m 12,9 km/h (3 Bft) 100,00 %
28.12.2021 13:04 9,9 C 9,4 C 8,3 C 99 % 991,2 hPa 0,0 l/m 0 min 2 min 31 W/m 19,3 km/h (3 Bft) 100,00 %
28.12.2021 13:06 9,9 C 9,4 C 8,3 C 99 % 991,2 hPa 0,0 l/m 0 min 2 min 22 W/m 16,1 km/h (3 Bft) 100,00 %
28.12.2021 13:08 9,9 C 9,4 C 8,3 C 99 % 991,2 hPa 0,0 l/m 0 min 0 min 23 W/m 16,1 km/h (3 Bft) 97,87 %
28.12.2021 13:10 9,9 C 9,4 C 8,3 C 99 % 991,3 hPa 0,0 l/m 0 min 0 min 18 W/m 16,1 km/h (3 Bft) 100,00 %
28.12.2021 13:12 9,9 C 9,4 C 8,3 C 99 % 991,4 hPa 0,0 l/m 0 min 0 min 14 W/m 16,1 km/h (3 Bft) 97,87 %
28.12.2021 13:14 9,9 C 9,4 C 8,3 C 99 % 991,5 hPa 0,2 l/m 0 min 0 min 10 W/m 19,3 km/h (3 Bft) 100,00 %
28.12.2021 13:16 9,9 C 9,4 C 8,3 C 99 % 991,5 hPa 0,0 l/m 0 min 0 min 6 W/m 32,2 km/h (5 Bft) 100,00 %
28.12.2021 13:18 9,9 C 9,4 C 8,3 C 99 % 991,6 hPa 0,0 l/m 0 min 2 min 8 W/m 48,3 km/h (6 Bft) 97,14 %
28.12.2021 13:20 9,9 C 9,4 C 8,3 C 99 % 991,6 hPa 0,0 l/m 0 min 0 min 14 W/m 35,4 km/h (5 Bft) 98,21 %
28.12.2021 13:22 9,9 C 9,4 C 8,3 C 99 % 991,7 hPa 0,0 l/m 0 min 0 min 25 W/m 41,8 km/h (6 Bft) 97,83 %
28.12.2021 13:24 9,8 C 9,4 C 8,3 C 99 % 991,7 hPa 0,0 l/m 0 min 0 min 33 W/m 25,7 km/h (4 Bft) 95,74 %
28.12.2021 13:26 9,8 C 9,4 C 8,3 C 99 % 991,7 hPa 0,0 l/m 0 min 0 min 35 W/m 32,2 km/h (5 Bft) 95,74 %
28.12.2021 13:28 9,8 C 9,4 C 8,3 C 99 % 991,6 hPa 0,0 l/m 0 min 0 min 36 W/m 25,7 km/h (4 Bft) 97,87 %
28.12.2021 13:30 9,8 C 9,4 C 7,8 C 99 % 991,5 hPa 0,0 l/m 0 min 0 min 39 W/m 22,5 km/h (4 Bft) 97,87 %
28.12.2021 13:32 9,8 C 9,4 C 7,8 C 99 % 991,5 hPa 0,0 l/m 0 min 0 min 37 W/m 32,2 km/h (5 Bft) 97,87 %
28.12.2021 13:34 9,8 C 9,4 C 7,8 C 99 % 991,5 hPa 0,0 l/m 0 min 0 min 34 W/m 19,3 km/h (3 Bft) 97,83 %
28.12.2021 13:36 9,8 C 9,4 C 7,8 C 99 % 991,4 hPa 0,0 l/m 0 min 0 min 33 W/m 16,1 km/h (3 Bft) 97,87 %
28.12.2021 13:38 9,8 C 9,4 C 7,8 C 98 % 991,4 hPa 0,0 l/m 0 min 0 min 33 W/m 19,3 km/h (3 Bft) 97,87 %
28.12.2021 13:40 9,8 C 9,4 C 7,8 C 98 % 991,5 hPa 0,0 l/m 0 min 0 min 38 W/m 29,0 km/h (5 Bft) 96,00 %
28.12.2021 13:42 9,8 C 9,4 C 7,8 C 98 % 991,5 hPa 0,0 l/m 0 min 0 min 40 W/m 25,7 km/h (4 Bft) 97,87 %
28.12.2021 13:44 9,8 C 9,4 C 7,8 C 97 % 991,5 hPa 0,0 l/m 0 min 0 min 38 W/m 19,3 km/h (3 Bft) 97,83 %
28.12.2021 13:46 9,9 C 9,4 C 7,8 C 97 % 991,4 hPa 0,0 l/m 0 min 0 min 35 W/m 41,8 km/h (6 Bft) 95,74 %
28.12.2021 13:48 9,9 C 8,9 C 7,8 C 96 % 991,6 hPa 0,0 l/m 0 min 0 min 33 W/m 19,3 km/h (3 Bft) 97,87 %
28.12.2021 13:50 9,9 C 8,9 C 7,8 C 96 % 991,6 hPa 0,0 l/m 0 min 0 min 33 W/m 25,7 km/h (4 Bft) 100,00 %
28.12.2021 13:52 9,9 C 8,9 C 7,8 C 95 % 991,5 hPa 0,0 l/m 0 min 0 min 32 W/m 38,6 km/h (5 Bft) 100,00 %
28.12.2021 13:54 9,9 C 8,9 C 7,8 C 95 % 991,5 hPa 0,0 l/m 0 min 0 min 32 W/m 25,7 km/h (4 Bft) 95,74 %
28.12.2021 13:56 9,9 C 8,9 C 7,8 C 94 % 991,5 hPa 0,0 l/m 0 min 0 min 33 W/m 19,3 km/h (3 Bft) 100,00 %
28.12.2021 13:58 9,9 C 8,9 C 7,8 C 94 % 991,5 hPa 0,0 l/m 0 min 0 min 35 W/m 19,3 km/h (3 Bft) 100,00 %
28.12.2021 14:00 9,9 C 8,9 C 7,8 C 93 % 991,5 hPa 0,0 l/m 0 min 0 min 32 W/m 19,3 km/h (3 Bft) 93,62 %
28.12.2021 14:02 9,9 C 8,9 C 7,8 C 93 % 991,6 hPa 0,0 l/m 0 min 0 min 27 W/m 19,3 km/h (3 Bft) 97,87 %
28.12.2021 14:04 9,9 C 8,9 C 7,2 C 93 % 991,5 hPa 0,0 l/m 0 min 0 min 28 W/m 29,0 km/h (5 Bft) 97,87 %
28.12.2021 14:06 9,9 C 8,9 C 7,2 C 92 % 991,6 hPa 0,0 l/m 0 min 0 min 38 W/m 29,0 km/h (5 Bft) 97,87 %
28.12.2021 14:08 9,9 C 8,9 C 7,2 C 92 % 991,6 hPa 0,0 l/m 0 min 0 min 36 W/m 19,3 km/h (3 Bft) 97,83 %
28.12.2021 14:10 9,9 C 8,9 C 7,2 C 92 % 991,5 hPa 0,0 l/m 0 min 0 min 33 W/m 16,1 km/h (3 Bft) 95,74 %
28.12.2021 14:12 9,9 C 8,9 C 7,2 C 91 % 991,5 hPa 0,0 l/m 0 min 0 min 31 W/m 22,5 km/h (4 Bft) 95,74 %
28.12.2021 14:14 9,9 C 8,9 C 7,2 C 91 % 991,5 hPa 0,0 l/m 0 min 0 min 29 W/m 16,1 km/h (3 Bft) 97,87 %
28.12.2021 14:16 9,9 C 8,9 C 7,2 C 91 % 991,5 hPa 0,0 l/m 0 min 0 min 34 W/m 32,2 km/h (5 Bft) 97,87 %
28.12.2021 14:18 9,9 C 8,9 C 7,2 C 90 % 991,5 hPa 0,0 l/m 0 min 0 min 38 W/m 25,7 km/h (4 Bft) 97,83 %
28.12.2021 14:20 10,0 C 9,4 C 7,2 C 90 % 991,5 hPa 0,0 l/m 0 min 0 min 57 W/m 32,2 km/h (5 Bft) 95,74 %
28.12.2021 14:22 10,1 C 9,4 C 7,2 C 90 % 991,6 hPa 0,0 l/m 0 min 0 min 61 W/m 22,5 km/h (4 Bft) 93,62 %
28.12.2021 14:24 10,1 C 9,4 C 7,2 C 90 % 991,6 hPa 0,0 l/m 0 min 0 min 70 W/m 16,1 km/h (3 Bft) 97,87 %
28.12.2021 14:26 10,1 C 9,4 C 7,2 C 90 % 991,6 hPa 0,0 l/m 0 min 0 min 112 W/m 19,3 km/h (3 Bft) 95,74 %
28.12.2021 14:28 10,1 C 9,4 C 7,2 C 90 % 991,6 hPa 0,0 l/m 2 min 0 min 144 W/m 16,1 km/h (3 Bft) 95,74 %
28.12.2021 14:30 10,1 C 10,0 C 7,8 C 89 % 991,6 hPa 0,0 l/m 2 min 0 min 180 W/m 35,4 km/h (5 Bft) 97,83 %
28.12.2021 14:32 10,2 C 10,0 C 7,8 C 90 % 991,6 hPa 0,0 l/m 2 min 0 min 237 W/m 19,3 km/h (3 Bft) 97,87 %
28.12.2021 14:34 10,3 C 10,6 C 7,8 C 89 % 991,7 hPa 0,0 l/m 2 min 0 min 201 W/m 29,0 km/h (5 Bft) 95,74 %
28.12.2021 14:36 10,4 C 10,6 C 7,8 C 89 % 991,6 hPa 0,0 l/m 2 min 0 min 180 W/m 29,0 km/h (5 Bft) 97,87 %
28.12.2021 14:38 10,5 C 10,0 C 7,8 C 89 % 991,6 hPa 0,0 l/m 2 min 0 min 132 W/m 22,5 km/h (4 Bft) 97,87 %
28.12.2021 14:40 10,5 C 10,0 C 7,8 C 88 % 991,6 hPa 0,0 l/m 0 min 0 min 89 W/m 22,5 km/h (4 Bft) 100,00 %
28.12.2021 14:42 10,6 C 10,0 C 7,8 C 88 % 991,6 hPa 0,0 l/m 0 min 0 min 57 W/m 25,7 km/h (4 Bft) 100,00 %
28.12.2021 14:44 10,6 C 10,0 C 7,8 C 88 % 991,7 hPa 0,0 l/m 0 min 0 min 48 W/m 29,0 km/h (5 Bft) 95,74 %
28.12.2021 14:46 10,6 C 10,0 C 7,8 C 87 % 991,6 hPa 0,0 l/m 0 min 0 min 49 W/m 19,3 km/h (3 Bft) 95,74 %
28.12.2021 14:48 10,6 C 9,4 C 7,8 C 87 % 991,7 hPa 0,0 l/m 0 min 0 min 41 W/m 22,5 km/h (4 Bft) 97,87 %
28.12.2021 14:50 10,6 C 9,4 C 7,2 C 87 % 991,7 hPa 0,0 l/m 0 min 0 min 34 W/m 16,1 km/h (3 Bft) 97,87 %
28.12.2021 14:52 10,5 C 9,4 C 7,2 C 87 % 991,6 hPa 0,0 l/m 0 min 0 min 38 W/m 38,6 km/h (5 Bft) 97,87 %
28.12.2021 14:54 10,5 C 9,4 C 7,2 C 87 % 991,6 hPa 0,0 l/m 0 min 0 min 48 W/m 16,1 km/h (3 Bft) 97,83 %
28.12.2021 14:56 10,5 C 9,4 C 7,2 C 86 % 991,7 hPa 0,0 l/m 0 min 0 min 38 W/m 22,5 km/h (4 Bft) 97,87 %
28.12.2021 14:58 10,5 C 9,4 C 7,2 C 86 % 991,7 hPa 0,0 l/m 0 min 0 min 26 W/m 29,0 km/h (5 Bft) 97,87 %
28.12.2021 15:00 10,5 C 9,4 C 7,2 C 86 % 991,7 hPa 0,0 l/m 0 min 0 min 19 W/m 29,0 km/h (5 Bft) 95,74 %
28.12.2021 15:02 10,5 C 9,4 C 7,2 C 86 % 991,7 hPa 0,0 l/m 0 min 0 min 16 W/m 12,9 km/h (3 Bft) 93,62 %
28.12.2021 15:04 10,4 C 9,4 C 7,2 C 86 % 991,8 hPa 0,0 l/m 0 min 0 min 25 W/m 16,1 km/h (3 Bft) 97,87 %
28.12.2021 15:06 10,4 C 9,4 C 7,2 C 86 % 991,7 hPa 0,0 l/m 0 min 0 min 27 W/m 19,3 km/h (3 Bft) 97,83 %
28.12.2021 15:08 10,4 C 9,4 C 7,2 C 86 % 991,8 hPa 0,0 l/m 0 min 0 min 25 W/m 16,1 km/h (3 Bft) 97,87 %
28.12.2021 15:10 10,4 C 9,4 C 7,2 C 86 % 991,8 hPa 0,0 l/m 0 min 0 min 27 W/m 16,1 km/h (3 Bft) 95,74 %
28.12.2021 15:12 10,4 C 9,4 C 7,2 C 86 % 991,9 hPa 0,0 l/m 0 min 0 min 28 W/m 22,5 km/h (4 Bft) 95,74 %
28.12.2021 15:14 10,4 C 9,4 C 7,2 C 86 % 991,9 hPa 0,0 l/m 0 min 0 min 27 W/m 12,9 km/h (3 Bft) 95,74 %
28.12.2021 15:16 10,4 C 9,4 C 7,2 C 86 % 991,9 hPa 0,0 l/m 0 min 0 min 28 W/m 22,5 km/h (4 Bft) 95,74 %
28.12.2021 15:18 10,4 C 9,4 C 7,2 C 86 % 991,8 hPa 0,0 l/m 0 min 0 min 25 W/m 29,0 km/h (5 Bft) 95,65 %
28.12.2021 15:20 10,4 C 9,4 C 7,2 C 85 % 991,8 hPa 0,0 l/m 0 min 0 min 26 W/m 25,7 km/h (4 Bft) 93,62 %
28.12.2021 15:22 10,4 C 9,4 C 7,2 C 85 % 991,8 hPa 0,0 l/m 0 min 0 min 29 W/m 19,3 km/h (3 Bft) 95,74 %
28.12.2021 15:24 10,4 C 9,4 C 7,2 C 85 % 991,8 hPa 0,0 l/m 0 min 0 min 24 W/m 19,3 km/h (3 Bft) 95,74 %
28.12.2021 15:26 10,4 C 9,4 C 7,2 C 84 % 991,8 hPa 0,0 l/m 0 min 0 min 17 W/m 29,0 km/h (5 Bft) 95,74 %
28.12.2021 15:28 10,4 C 9,4 C 7,2 C 84 % 991,9 hPa 0,0 l/m 0 min 0 min 14 W/m 12,9 km/h (3 Bft) 97,83 %
28.12.2021 15:30 10,4 C 9,4 C 7,2 C 84 % 991,8 hPa 0,0 l/m 0 min 0 min 14 W/m 29,0 km/h (5 Bft) 95,74 %
28.12.2021 15:32 10,4 C 9,4 C 6,7 C 84 % 991,9 hPa 0,0 l/m 0 min 0 min 14 W/m 29,0 km/h (5 Bft) 95,74 %
28.12.2021 15:34 10,4 C 9,4 C 6,7 C 84 % 991,9 hPa 0,0 l/m 0 min 0 min 13 W/m 16,1 km/h (3 Bft) 95,74 %
28.12.2021 15:36 10,3 C 9,4 C 6,7 C 84 % 991,9 hPa 0,0 l/m 0 min 0 min 12 W/m 32,2 km/h (5 Bft) 97,87 %
28.12.2021 15:38 10,3 C 9,4 C 6,7 C 83 % 992,0 hPa 0,0 l/m 0 min 0 min 12 W/m 22,5 km/h (4 Bft) 97,87 %
28.12.2021 15:40 10,2 C 9,4 C 6,7 C 83 % 991,9 hPa 0,0 l/m 0 min 0 min 12 W/m 32,2 km/h (5 Bft) 95,74 %
28.12.2021 15:42 10,2 C 9,4 C 7,2 C 82 % 992,1 hPa 0,0 l/m 0 min 0 min 15 W/m 41,8 km/h (6 Bft) 93,48 %
28.12.2021 15:44 10,1 C 8,9 C 7,2 C 82 % 992,1 hPa 0,0 l/m 0 min 2 min 15 W/m 29,0 km/h (5 Bft) 97,87 %
28.12.2021 15:46 9,9 C 8,9 C 6,7 C 83 % 992,3 hPa 0,0 l/m 0 min 2 min 11 W/m 38,6 km/h (5 Bft) 100,00 %
28.12.2021 15:48 9,7 C 8,3 C 6,1 C 85 % 992,2 hPa 0,0 l/m 0 min 2 min 11 W/m 35,4 km/h (5 Bft) 100,00 %
28.12.2021 15:50 9,5 C 7,8 C 6,1 C 86 % 992,3 hPa 0,0 l/m 0 min 2 min 11 W/m 29,0 km/h (5 Bft) 100,00 %
28.12.2021 15:52 9,3 C 7,8 C 6,1 C 86 % 992,4 hPa 0,0 l/m 0 min 2 min 12 W/m 29,0 km/h (5 Bft) 100,00 %
28.12.2021 15:54 9,2 C 7,8 C 6,1 C 87 % 992,4 hPa 0,0 l/m 0 min 2 min 12 W/m 25,7 km/h (4 Bft) 100,00 %
28.12.2021 15:56 9,1 C 7,8 C 6,1 C 88 % 992,4 hPa 0,2 l/m 0 min 2 min 10 W/m 22,5 km/h (4 Bft) 100,00 %
28.12.2021 15:58 9,0 C 7,8 C 6,1 C 88 % 992,3 hPa 0,0 l/m 0 min 2 min 7 W/m 22,5 km/h (4 Bft) 100,00 %
28.12.2021 16:00 8,9 C 7,8 C 5,6 C 89 % 992,3 hPa 0,0 l/m 0 min 2 min 5 W/m 19,3 km/h (3 Bft) 100,00 %
28.12.2021 16:02 8,8 C 7,8 C 5,6 C 89 % 992,3 hPa 0,0 l/m 0 min 2 min 1 W/m 16,1 km/h (3 Bft) 100,00 %
28.12.2021 16:04 8,7 C 7,8 C 5,6 C 89 % 992,4 hPa 0,0 l/m 0 min 2 min 0 W/m 16,1 km/h (3 Bft) 93,48 %
28.12.2021 16:06 8,7 C 7,8 C 5,6 C 90 % 992,4 hPa 0,0 l/m 0 min 2 min 0 W/m 16,1 km/h (3 Bft) 100,00 %
28.12.2021 16:08 8,6 C 7,2 C 5,6 C 90 % 992,3 hPa 0,0 l/m 0 min 2 min 0 W/m 29,0 km/h (5 Bft) 97,87 %
28.12.2021 16:10 8,4 C 7,2 C 5,6 C 91 % 992,3 hPa 0,2 l/m 0 min 2 min 0 W/m 25,7 km/h (4 Bft) 100,00 %
28.12.2021 16:12 8,3 C 7,2 C 5,6 C 91 % 992,3 hPa 0,0 l/m 0 min 2 min 0 W/m 25,7 km/h (4 Bft) 97,87 %
28.12.2021 16:14 8,3 C 6,7 C 5,0 C 91 % 992,3 hPa 0,0 l/m 0 min 2 min 0 W/m 19,3 km/h (3 Bft) 100,00 %
28.12.2021 16:16 8,2 C 6,7 C 5,0 C 91 % 992,3 hPa 0,2 l/m 0 min 2 min 0 W/m 29,0 km/h (5 Bft) 100,00 %
28.12.2021 16:18 8,1 C 6,7 C 5,0 C 92 % 992,3 hPa 0,0 l/m 0 min 2 min 0 W/m 19,3 km/h (3 Bft) 100,00 %
28.12.2021 16:20 8,1 C 6,7 C 5,0 C 92 % 992,3 hPa 0,0 l/m 0 min 0 min 0 W/m 16,1 km/h (3 Bft) 97,87 %
28.12.2021 16:22 8,0 C 6,7 C 5,0 C 92 % 992,4 hPa 0,0 l/m 0 min 0 min 0 W/m 19,3 km/h (3 Bft) 97,87 %
28.12.2021 16:24 7,9 C 6,7 C 5,0 C 92 % 992,4 hPa 0,0 l/m 0 min 0 min 0 W/m 19,3 km/h (3 Bft) 100,00 %
28.12.2021 16:26 7,9 C 6,7 C 5,0 C 92 % 992,4 hPa 0,0 l/m 0 min 2 min 0 W/m 19,3 km/h (3 Bft) 100,00 %
28.12.2021 16:28 7,8 C 6,7 C 5,0 C 93 % 992,4 hPa 0,0 l/m 0 min 2 min 0 W/m 12,9 km/h (3 Bft) 97,87 %
28.12.2021 16:30 7,8 C 6,7 C 5,0 C 93 % 992,4 hPa 0,0 l/m 0 min 2 min 0 W/m 16,1 km/h (3 Bft) 97,87 %
28.12.2021 16:32 7,8 C 6,7 C 5,0 C 93 % 992,5 hPa 0,0 l/m 0 min 2 min 0 W/m 22,5 km/h (4 Bft) 97,87 %
28.12.2021 16:34 7,8 C 6,7 C 5,0 C 93 % 992,5 hPa 0,0 l/m 0 min 2 min 0 W/m 19,3 km/h (3 Bft) 95,74 %
28.12.2021 16:36 7,8 C 6,7 C 5,0 C 93 % 992,5 hPa 0,2 l/m 0 min 2 min 0 W/m 16,1 km/h (3 Bft) 95,74 %
28.12.2021 16:38 7,8 C 6,7 C 5,0 C 93 % 992,4 hPa 0,0 l/m 0 min 2 min 0 W/m 19,3 km/h (3 Bft) 97,83 %
28.12.2021 16:40 7,7 C 6,7 C 5,0 C 93 % 992,5 hPa 0,2 l/m 0 min 2 min 0 W/m 29,0 km/h (5 Bft) 97,87 %
28.12.2021 16:42 7,6 C 6,1 C 5,0 C 93 % 992,4 hPa 0,0 l/m 0 min 2 min 0 W/m 19,3 km/h (3 Bft) 97,87 %
28.12.2021 16:44 7,6 C 6,1 C 5,0 C 93 % 992,5 hPa 0,2 l/m 0 min 2 min 0 W/m 22,5 km/h (4 Bft) 97,87 %
28.12.2021 16:46 7,6 C 6,1 C 5,0 C 93 % 992,5 hPa 0,2 l/m 0 min 2 min 0 W/m 12,9 km/h (3 Bft) 97,87 %
28.12.2021 16:48 7,5 C 6,1 C 5,0 C 94 % 992,5 hPa 0,2 l/m 0 min 2 min 0 W/m 16,1 km/h (3 Bft) 95,74 %
28.12.2021 16:50 7,4 C 6,1 C 5,0 C 94 % 992,4 hPa 0,0 l/m 0 min 2 min 0 W/m 16,1 km/h (3 Bft) 97,87 %
28.12.2021 16:52 7,4 C 6,1 C 5,0 C 94 % 992,5 hPa 0,0 l/m 0 min 2 min 0 W/m 9,7 km/h (2 Bft) 97,83 %
28.12.2021 16:54 7,4 C 6,1 C 5,0 C 94 % 992,4 hPa 0,2 l/m 0 min 2 min 0 W/m 12,9 km/h (3 Bft) 95,74 %
28.12.2021 16:56 7,3 C 6,1 C 5,0 C 94 % 992,3 hPa 0,0 l/m 0 min 2 min 0 W/m 9,7 km/h (2 Bft) 95,74 %
28.12.2021 16:58 7,3 C 6,1 C 5,0 C 94 % 992,2 hPa 0,0 l/m 0 min 2 min 0 W/m 6,4 km/h (2 Bft) 97,87 %
28.12.2021 17:00 7,3 C 6,1 C 4,4 C 94 % 992,3 hPa 0,0 l/m 0 min 2 min 0 W/m 6,4 km/h (2 Bft) 97,87 %
28.12.2021 17:02 7,3 C 6,1 C 4,4 C 94 % 992,2 hPa 0,2 l/m 0 min 2 min 0 W/m 6,4 km/h (2 Bft) 97,83 %
28.12.2021 17:04 7,3 C 6,1 C 4,4 C 95 % 992,2 hPa 0,0 l/m 0 min 2 min 0 W/m 9,7 km/h (2 Bft) 95,74 %
28.12.2021 17:06 7,2 C 6,1 C 4,4 C 95 % 992,3 hPa 0,2 l/m 0 min 2 min 0 W/m 3,2 km/h (1 Bft) 93,62 %
28.12.2021 17:08 7,2 C 6,1 C 4,4 C 95 % 992,3 hPa 0,0 l/m 0 min 2 min 0 W/m 6,4 km/h (2 Bft) 95,74 %
28.12.2021 17:10 7,2 C 6,1 C 4,4 C 95 % 992,3 hPa 0,0 l/m 0 min 2 min 0 W/m 6,4 km/h (2 Bft) 97,87 %
28.12.2021 17:12 7,2 C 6,1 C 4,4 C 95 % 992,3 hPa 0,2 l/m 0 min 2 min 0 W/m 3,2 km/h (1 Bft) 97,87 %
28.12.2021 17:14 7,2 C 6,1 C 4,4 C 95 % 992,3 hPa 0,2 l/m 0 min 2 min 0 W/m 3,2 km/h (1 Bft) 97,83 %
28.12.2021 17:16 7,2 C 6,1 C 4,4 C 95 % 992,4 hPa 0,0 l/m 0 min 2 min 0 W/m 9,7 km/h (2 Bft) 97,87 %
28.12.2021 17:18 7,2 C 6,1 C 4,4 C 95 % 992,4 hPa 0,2 l/m 0 min 2 min 0 W/m 6,4 km/h (2 Bft) 97,87 %
28.12.2021 17:20 7,2 C 6,1 C 4,4 C 95 % 992,5 hPa 0,2 l/m 0 min 2 min 0 W/m 3,2 km/h (1 Bft) 97,87 %
28.12.2021 17:22 7,1 C 6,1 C 4,4 C 95 % 992,5 hPa 0,0 l/m 0 min 2 min 0 W/m 6,4 km/h (2 Bft) 95,74 %
28.12.2021 17:24 7,1 C 6,1 C 4,4 C 95 % 992,4 hPa 0,2 l/m 0 min 2 min 0 W/m 9,7 km/h (2 Bft) 97,87 %
28.12.2021 17:26 7,1 C 6,1 C 4,4 C 95 % 992,5 hPa 0,2 l/m 0 min 2 min 0 W/m 9,7 km/h (2 Bft) 97,83 %
28.12.2021 17:28 7,1 C 6,1 C 4,4 C 95 % 992,4 hPa 0,2 l/m 0 min 2 min 0 W/m 9,7 km/h (2 Bft) 97,87 %
28.12.2021 17:30 7,1 C 6,1 C 4,4 C 95 % 992,4 hPa 0,0 l/m 0 min 2 min 0 W/m 9,7 km/h (2 Bft) 50,00 %
28.12.2021 17:32 7,1 C 6,1 C 4,4 C 96 % 992,4 hPa 0,2 l/m 0 min 2 min 0 W/m 9,7 km/h (2 Bft) 97,87 %
28.12.2021 17:34 7,1 C 6,1 C 4,4 C 96 % 992,4 hPa 0,2 l/m 0 min 2 min 0 W/m 12,9 km/h (3 Bft) 97,87 %
28.12.2021 17:36 7,1 C 6,1 C 4,4 C 96 % 992,3 hPa 0,0 l/m 0 min 2 min 0 W/m 9,7 km/h (2 Bft) 100,00 %
28.12.2021 17:38 7,1 C 6,1 C 5,0 C 96 % 992,4 hPa 0,0 l/m 0 min 2 min 0 W/m 6,4 km/h (2 Bft) 100,00 %
28.12.2021 17:40 7,1 C 6,1 C 5,0 C 96 % 992,3 hPa 0,2 l/m 0 min 2 min 0 W/m 6,4 km/h (2 Bft) 100,00 %
28.12.2021 17:42 7,1 C 6,1 C 5,0 C 96 % 992,4 hPa 0,0 l/m 0 min 2 min 0 W/m 9,7 km/h (2 Bft) 100,00 %
28.12.2021 17:44 7,1 C 6,1 C 5,0 C 96 % 992,4 hPa 0,0 l/m 0 min 2 min 0 W/m 3,2 km/h (1 Bft) 100,00 %
28.12.2021 17:46 7,1 C 6,1 C 5,0 C 96 % 992,4 hPa 0,2 l/m 0 min 2 min 0 W/m 6,4 km/h (2 Bft) 97,87 %
28.12.2021 17:48 7,1 C 6,1 C 5,0 C 96 % 992,4 hPa 0,0 l/m 0 min 2 min 0 W/m 3,2 km/h (1 Bft) 100,00 %
28.12.2021 17:50 7,1 C 6,1 C 5,0 C 96 % 992,4 hPa 0,0 l/m 0 min 2 min 0 W/m 6,4 km/h (2 Bft) 97,87 %
28.12.2021 17:52 7,1 C 6,1 C 4,4 C 96 % 992,4 hPa 0,2 l/m 0 min 2 min 0 W/m 6,4 km/h (2 Bft) 95,74 %
28.12.2021 17:54 7,0 C 6,1 C 5,0 C 96 % 992,4 hPa 0,0 l/m 0 min 2 min 0 W/m 6,4 km/h (2 Bft) 97,87 %
28.12.2021 17:56 7,1 C 6,1 C 5,0 C 96 % 992,4 hPa 0,0 l/m 0 min 2 min 0 W/m 3,2 km/h (1 Bft) 91,49 %
28.12.2021 17:58 7,0 C 6,1 C 5,0 C 96 % 992,5 hPa 0,2 l/m 0 min 2 min 0 W/m 3,2 km/h (1 Bft) 97,87 %
28.12.2021 18:00 7,0 C 6,1 C 5,0 C 96 % 992,6 hPa 0,4 l/m 0 min 2 min 0 W/m 9,7 km/h (2 Bft) 97,83 %
28.12.2021 18:02 7,1 C 6,1 C 5,0 C 96 % 992,8 hPa 0,2 l/m 0 min 2 min 0 W/m 16,1 km/h (3 Bft) 97,87 %
28.12.2021 18:04 7,0 C 6,1 C 5,0 C 96 % 992,9 hPa 0,0 l/m 0 min 2 min 0 W/m 12,9 km/h (3 Bft) 97,87 %
28.12.2021 18:08 7,0 C 6,1 C 5,0 C 96 % 992,8 hPa 0,2 l/m 0 min 4 min 0 W/m 3,2 km/h (1 Bft) 96,81 %
28.12.2021 18:10 7,0 C 6,1 C 5,0 C 96 % 992,8 hPa 0,2 l/m 0 min 2 min 0 W/m 3,2 km/h (1 Bft) 95,74 %
28.12.2021 18:12 7,0 C 6,1 C 5,0 C 96 % 992,8 hPa 0,0 l/m 0 min 2 min 0 W/m 3,2 km/h (1 Bft) 97,83 %
28.12.2021 18:14 7,0 C 6,1 C 5,0 C 97 % 992,6 hPa 0,2 l/m 0 min 2 min 0 W/m 3,2 km/h (1 Bft) 95,74 %
28.12.2021 18:16 7,0 C 6,1 C 5,0 C 97 % 992,6 hPa 0,2 l/m 0 min 2 min 0 W/m 6,4 km/h (2 Bft) 97,87 %
28.12.2021 18:18 7,0 C 6,1 C 5,0 C 97 % 992,5 hPa 0,0 l/m 0 min 2 min 0 W/m 3,2 km/h (1 Bft) 97,87 %
28.12.2021 18:20 7,0 C 6,1 C 5,0 C 97 % 992,6 hPa 0,0 l/m 0 min 2 min 0 W/m 3,2 km/h (1 Bft) 97,87 %
28.12.2021 18:22 7,0 C 6,1 C 5,0 C 97 % 992,6 hPa 0,2 l/m 0 min 2 min 0 W/m 3,2 km/h (1 Bft) 97,83 %
28.12.2021 18:24 7,0 C 6,1 C 5,0 C 97 % 992,7 hPa 0,0 l/m 0 min 2 min 0 W/m 3,2 km/h (1 Bft) 97,87 %
28.12.2021 18:26 7,0 C 6,1 C 5,0 C 97 % 992,7 hPa 0,2 l/m 0 min 2 min 0 W/m 3,2 km/h (1 Bft) 95,74 %
28.12.2021 18:28 6,9 C 6,1 C 5,0 C 97 % 992,7 hPa 0,2 l/m 0 min 2 min 0 W/m 3,2 km/h (1 Bft) 97,87 %
28.12.2021 18:30 6,9 C 6,1 C 5,0 C 97 % 992,7 hPa 0,0 l/m 0 min 2 min 0 W/m 3,2 km/h (1 Bft) 100,00 %
28.12.2021 18:32 6,9 C 6,1 C 5,0 C 97 % 992,7 hPa 0,2 l/m 0 min 2 min 0 W/m 3,2 km/h (1 Bft) 95,74 %
28.12.2021 18:34 6,9 C 6,1 C 5,0 C 97 % 992,7 hPa 0,0 l/m 0 min 2 min 0 W/m 3,2 km/h (1 Bft) 97,14 %
28.12.2021 18:35 6,9 C 6,1 C 5,0 C 97 % 992,7 hPa 0,2 l/m 0 min 1 min 0 W/m 3,2 km/h (1 Bft) 98,25 %
28.12.2021 18:40 6,9 C 6,1 C 5,0 C 97 % 992,9 hPa 0,2 l/m 0 min 5 min 0 W/m 3,2 km/h (1 Bft) 99,12 %
28.12.2021 18:45 6,9 C 6,1 C 5,0 C 97 % 992,9 hPa 0,4 l/m 0 min 5 min 0 W/m 3,2 km/h (1 Bft) 100,00 %
28.12.2021 18:50 6,9 C 6,1 C 5,0 C 97 % 992,8 hPa 0,4 l/m 0 min 5 min 0 W/m 6,4 km/h (2 Bft) 100,00 %
28.12.2021 18:54 6,9 C 6,1 C 5,0 C 97 % 992,9 hPa 0,0 l/m 0 min 4 min 0 W/m 3,2 km/h (1 Bft) 97,50 %
28.12.2021 18:56 6,9 C 6,1 C 5,0 C 97 % 992,9 hPa 0,2 l/m 0 min 2 min 0 W/m 3,2 km/h (1 Bft) 100,00 %
28.12.2021 18:58 6,9 C 6,1 C 5,0 C 97 % 992,9 hPa 0,2 l/m 0 min 2 min 0 W/m 3,2 km/h (1 Bft) 93,62 %
28.12.2021 19:00 6,9 C 6,1 C 5,0 C 97 % 993,0 hPa 0,0 l/m 0 min 2 min 0 W/m 3,2 km/h (1 Bft) 93,62 %
28.12.2021 19:02 6,9 C 6,1 C 5,0 C 97 % 993,1 hPa 0,0 l/m 0 min 0 min 0 W/m 0,0 km/h (0 Bft) 95,83 %
28.12.2021 19:04 6,9 C 6,1 C 5,0 C 97 % 993,1 hPa 0,0 l/m 0 min 0 min 0 W/m 3,2 km/h (1 Bft) 95,12 %
28.12.2021 19:06 7,0 C 6,1 C 5,0 C 97 % 993,1 hPa 0,0 l/m 0 min 0 min 0 W/m 6,4 km/h (2 Bft) 95,74 %
28.12.2021 19:08 7,0 C 6,1 C 5,0 C 97 % 993,2 hPa 0,0 l/m 0 min 0 min 0 W/m 6,4 km/h (2 Bft) 95,74 %
28.12.2021 19:10 7,0 C 6,1 C 5,0 C 97 % 993,2 hPa 0,0 l/m 0 min 0 min 0 W/m 9,7 km/h (2 Bft) 93,62 %
28.12.2021 19:12 7,1 C 6,1 C 5,0 C 97 % 993,3 hPa 0,0 l/m 0 min 2 min 0 W/m 6,4 km/h (2 Bft) 97,78 %
28.12.2021 19:14 7,1 C 6,1 C 5,0 C 97 % 993,2 hPa 0,0 l/m 0 min 0 min 0 W/m 6,4 km/h (2 Bft) 93,62 %
28.12.2021 19:16 7,1 C 6,1 C 5,0 C 97 % 993,3 hPa 0,0 l/m 0 min 0 min 0 W/m 3,2 km/h (1 Bft) 95,74 %
28.12.2021 19:18 7,1 C 6,1 C 5,0 C 98 % 993,4 hPa 0,2 l/m 0 min 0 min 0 W/m 3,2 km/h (1 Bft) 95,74 %
28.12.2021 19:20 7,2 C 6,1 C 5,0 C 98 % 993,4 hPa 0,0 l/m 0 min 2 min 0 W/m 3,2 km/h (1 Bft) 93,62 %
28.12.2021 19:22 7,2 C 6,1 C 5,0 C 98 % 993,4 hPa 0,0 l/m 0 min 0 min 0 W/m 6,4 km/h (2 Bft) 95,74 %
28.12.2021 19:24 7,2 C 6,1 C 5,0 C 98 % 993,5 hPa 0,0 l/m 0 min 0 min 0 W/m 3,2 km/h (1 Bft) 95,65 %
28.12.2021 19:26 7,2 C 6,7 C 5,0 C 98 % 993,6 hPa 0,0 l/m 0 min 0 min 0 W/m 3,2 km/h (1 Bft) 95,74 %
28.12.2021 19:28 7,3 C 6,7 C 5,0 C 98 % 993,6 hPa 0,0 l/m 0 min 0 min 0 W/m 3,2 km/h (1 Bft) 95,74 %
28.12.2021 19:30 7,3 C 6,7 C 5,0 C 98 % 993,7 hPa 0,0 l/m 0 min 0 min 0 W/m 3,2 km/h (1 Bft) 93,62 %
28.12.2021 19:32 7,3 C 6,7 C 5,0 C 98 % 993,7 hPa 0,0 l/m 0 min 0 min 0 W/m 3,2 km/h (1 Bft) 95,74 %
28.12.2021 19:34 7,3 C 6,7 C 5,0 C 98 % 993,7 hPa 0,0 l/m 0 min 0 min 0 W/m 3,2 km/h (1 Bft) 97,87 %
28.12.2021 19:36 7,3 C 6,7 C 5,0 C 98 % 993,7 hPa 0,0 l/m 0 min 0 min 0 W/m 6,4 km/h (2 Bft) 97,83 %
28.12.2021 19:38 7,3 C 6,7 C 5,0 C 98 % 993,7 hPa 0,0 l/m 0 min 0 min 0 W/m 6,4 km/h (2 Bft) 97,87 %
28.12.2021 19:40 7,3 C 6,7 C 5,6 C 98 % 993,7 hPa 0,0 l/m 0 min 0 min 0 W/m 6,4 km/h (2 Bft) 97,87 %
28.12.2021 19:42 7,3 C 6,7 C 5,6 C 98 % 993,8 hPa 0,0 l/m 0 min 0 min 0 W/m 3,2 km/h (1 Bft) 93,62 %
28.12.2021 19:44 7,3 C 6,7 C 5,6 C 98 % 993,7 hPa 0,0 l/m 0 min 0 min 0 W/m 12,9 km/h (3 Bft) 97,87 %
28.12.2021 19:46 7,4 C 6,7 C 5,6 C 98 % 993,8 hPa 0,0 l/m 0 min 0 min 0 W/m 12,9 km/h (3 Bft) 100,00 %
28.12.2021 19:48 7,4 C 6,7 C 5,6 C 98 % 993,9 hPa 0,0 l/m 0 min 0 min 0 W/m 6,4 km/h (2 Bft) 100,00 %
28.12.2021 19:50 7,4 C 6,7 C 5,6 C 98 % 994,0 hPa 0,0 l/m 0 min 0 min 0 W/m 3,2 km/h (1 Bft) 100,00 %
28.12.2021 19:52 7,5 C 6,7 C 5,6 C 98 % 994,0 hPa 0,0 l/m 0 min 0 min 0 W/m 16,1 km/h (3 Bft) 100,00 %
28.12.2021 19:54 7,6 C 6,7 C 5,6 C 98 % 994,0 hPa 0,0 l/m 0 min 0 min 0 W/m 12,9 km/h (3 Bft) 100,00 %
28.12.2021 19:56 7,6 C 6,7 C 5,6 C 98 % 994,1 hPa 0,0 l/m 0 min 0 min 0 W/m 12,9 km/h (3 Bft) 100,00 %
28.12.2021 19:58 7,7 C 6,7 C 5,6 C 98 % 994,2 hPa 0,0 l/m 0 min 0 min 0 W/m 9,7 km/h (2 Bft) 100,00 %
28.12.2021 20:00 7,7 C 6,7 C 5,6 C 98 % 994,2 hPa 0,0 l/m 0 min 2 min 0 W/m 16,1 km/h (3 Bft) 100,00 %
28.12.2021 20:02 7,7 C 7,2 C 5,6 C 98 % 994,2 hPa 0,0 l/m 0 min 2 min 0 W/m 16,1 km/h (3 Bft) 100,00 %
28.12.2021 20:04 7,8 C 7,2 C 5,6 C 98 % 994,3 hPa 0,0 l/m 0 min 2 min 0 W/m 9,7 km/h (2 Bft) 100,00 %
28.12.2021 20:06 7,8 C 7,2 C 5,6 C 98 % 994,3 hPa 0,0 l/m 0 min 0 min 0 W/m 9,7 km/h (2 Bft) 100,00 %
28.12.2021 20:08 7,8 C 7,2 C 5,6 C 98 % 994,3 hPa 0,0 l/m 0 min 2 min 0 W/m 6,4 km/h (2 Bft) 100,00 %
28.12.2021 20:10 7,8 C 7,2 C 5,6 C 98 % 994,3 hPa 0,0 l/m 0 min 0 min 0 W/m 6,4 km/h (2 Bft) 100,00 %
28.12.2021 20:12 7,8 C 7,2 C 5,6 C 98 % 994,3 hPa 0,0 l/m 0 min 0 min 0 W/m 6,4 km/h (2 Bft) 100,00 %
28.12.2021 20:14 7,8 C 7,2 C 5,6 C 99 % 994,4 hPa 0,2 l/m 0 min 2 min 0 W/m 9,7 km/h (2 Bft) 100,00 %
28.12.2021 20:16 7,9 C 7,2 C 5,6 C 99 % 994,4 hPa 0,0 l/m 0 min 2 min 0 W/m 6,4 km/h (2 Bft) 97,87 %
28.12.2021 20:18 7,9 C 7,2 C 5,6 C 99 % 994,4 hPa 0,0 l/m 0 min 0 min 0 W/m 6,4 km/h (2 Bft) 100,00 %
28.12.2021 20:20 7,9 C 7,2 C 5,6 C 99 % 994,5 hPa 0,0 l/m 0 min 2 min 0 W/m 6,4 km/h (2 Bft) 100,00 %
28.12.2021 20:22 7,9 C 7,2 C 6,1 C 98 % 994,4 hPa 0,0 l/m 0 min 2 min 0 W/m 6,4 km/h (2 Bft) 95,74 %
28.12.2021 20:24 7,9 C 7,2 C 6,1 C 99 % 994,5 hPa 0,0 l/m 0 min 2 min 0 W/m 3,2 km/h (1 Bft) 100,00 %
28.12.2021 20:26 7,9 C 7,2 C 6,1 C 99 % 994,5 hPa 0,0 l/m 0 min 0 min 0 W/m 6,4 km/h (2 Bft) 100,00 %
28.12.2021 20:28 7,9 C 7,2 C 6,1 C 99 % 994,5 hPa 0,2 l/m 0 min 0 min 0 W/m 6,4 km/h (2 Bft) 100,00 %
28.12.2021 20:30 7,9 C 7,2 C 6,1 C 99 % 994,5 hPa 0,0 l/m 0 min 0 min 0 W/m 6,4 km/h (2 Bft) 100,00 %
28.12.2021 20:32 7,9 C 7,2 C 6,1 C 99 % 994,6 hPa 0,0 l/m 0 min 0 min 0 W/m 3,2 km/h (1 Bft) 100,00 %
28.12.2021 20:34 7,9 C 7,2 C 6,1 C 99 % 994,6 hPa 0,0 l/m 0 min 0 min 0 W/m 6,4 km/h (2 Bft) 100,00 %
28.12.2021 20:36 7,9 C 7,2 C 6,1 C 99 % 994,7 hPa 0,0 l/m 0 min 0 min 0 W/m 6,4 km/h (2 Bft) 100,00 %
28.12.2021 20:38 7,9 C 7,2 C 6,1 C 99 % 994,8 hPa 0,0 l/m 0 min 0 min 0 W/m 6,4 km/h (2 Bft) 100,00 %
28.12.2021 20:40 7,9 C 7,2 C 6,1 C 99 % 994,8 hPa 0,0 l/m 0 min 0 min 0 W/m 3,2 km/h (1 Bft) 97,87 %
28.12.2021 20:42 7,9 C 7,2 C 6,1 C 99 % 994,8 hPa 0,0 l/m 0 min 0 min 0 W/m 3,2 km/h (1 Bft) 100,00 %
28.12.2021 20:44 7,9 C 7,2 C 6,1 C 99 % 994,8 hPa 0,2 l/m 0 min 0 min 0 W/m 6,4 km/h (2 Bft) 100,00 %
28.12.2021 20:46 7,9 C 7,2 C 6,1 C 99 % 994,8 hPa 0,0 l/m 0 min 0 min 0 W/m 6,4 km/h (2 Bft) 100,00 %
28.12.2021 20:48 8,0 C 7,2 C 6,1 C 99 % 994,9 hPa 0,0 l/m 0 min 0 min 0 W/m 6,4 km/h (2 Bft) 100,00 %
28.12.2021 20:50 8,0 C 7,2 C 6,1 C 99 % 994,9 hPa 0,0 l/m 0 min 0 min 0 W/m 6,4 km/h (2 Bft) 97,87 %
28.12.2021 20:52 8,1 C 7,2 C 6,1 C 99 % 995,0 hPa 0,0 l/m 0 min 0 min 0 W/m 6,4 km/h (2 Bft) 97,87 %
28.12.2021 20:54 8,1 C 7,2 C 6,1 C 99 % 995,0 hPa 0,0 l/m 0 min 0 min 0 W/m 6,4 km/h (2 Bft) 97,87 %
28.12.2021 20:56 8,1 C 7,2 C 6,1 C 99 % 995,1 hPa 0,2 l/m 0 min 2 min 0 W/m 6,4 km/h (2 Bft) 93,62 %
28.12.2021 20:58 8,1 C 7,2 C 6,1 C 99 % 995,1 hPa 0,0 l/m 0 min 0 min 0 W/m 6,4 km/h (2 Bft) 95,65 %
28.12.2021 21:00 8,2 C 7,2 C 6,1 C 99 % 995,2 hPa 0,0 l/m 0 min 0 min 0 W/m 9,7 km/h (2 Bft) 95,74 %
28.12.2021 21:02 8,2 C 7,2 C 6,1 C 99 % 995,2 hPa 0,0 l/m 0 min 0 min 0 W/m 12,9 km/h (3 Bft) 93,62 %
28.12.2021 21:04 8,2 C 7,2 C 6,1 C 99 % 995,2 hPa 0,0 l/m 0 min 0 min 0 W/m 6,4 km/h (2 Bft) 95,74 %
28.12.2021 21:06 8,2 C 7,8 C 6,7 C 99 % 995,3 hPa 0,0 l/m 0 min 0 min 0 W/m 12,9 km/h (3 Bft) 95,74 %
28.12.2021 21:08 8,3 C 7,8 C 6,7 C 99 % 995,3 hPa 0,0 l/m 0 min 0 min 0 W/m 6,4 km/h (2 Bft) 95,74 %
28.12.2021 21:10 8,3 C 7,2 C 6,7 C 99 % 995,3 hPa 0,2 l/m 0 min 0 min 0 W/m 12,9 km/h (3 Bft) 95,74 %
28.12.2021 21:12 8,2 C 7,2 C 6,1 C 99 % 995,4 hPa 0,0 l/m 0 min 0 min 0 W/m 16,1 km/h (3 Bft) 95,65 %
28.12.2021 21:14 8,2 C 7,2 C 6,7 C 99 % 995,4 hPa 0,0 l/m 0 min 0 min 0 W/m 12,9 km/h (3 Bft) 93,62 %
28.12.2021 21:16 8,2 C 7,2 C 6,7 C 99 % 995,4 hPa 0,0 l/m 0 min 0 min 0 W/m 16,1 km/h (3 Bft) 95,74 %
28.12.2021 21:18 8,3 C 7,8 C 6,7 C 99 % 995,4 hPa 0,0 l/m 0 min 0 min 0 W/m 16,1 km/h (3 Bft) 95,74 %
28.12.2021 21:20 8,3 C 7,8 C 6,7 C 99 % 995,4 hPa 0,0 l/m 0 min 0 min 0 W/m 9,7 km/h (2 Bft) 93,62 %
28.12.2021 21:22 8,3 C 7,8 C 6,7 C 99 % 995,5 hPa 0,0 l/m 0 min 0 min 0 W/m 12,9 km/h (3 Bft) 95,65 %
28.12.2021 21:24 8,3 C 7,8 C 6,7 C 99 % 995,5 hPa 0,0 l/m 0 min 0 min 0 W/m 9,7 km/h (2 Bft) 95,74 %
28.12.2021 21:26 8,3 C 7,8 C 6,7 C 99 % 995,6 hPa 0,0 l/m 0 min 0 min 0 W/m 12,9 km/h (3 Bft) 93,62 %
28.12.2021 21:28 8,4 C 7,8 C 6,7 C 99 % 995,6 hPa 0,2 l/m 0 min 2 min 0 W/m 12,9 km/h (3 Bft) 97,87 %
28.12.2021 21:30 8,4 C 7,8 C 6,7 C 99 % 995,6 hPa 0,0 l/m 0 min 0 min 0 W/m 19,3 km/h (3 Bft) 97,87 %
28.12.2021 21:32 8,4 C 7,8 C 6,7 C 99 % 995,7 hPa 0,0 l/m 0 min 0 min 0 W/m 16,1 km/h (3 Bft) 97,87 %
28.12.2021 21:34 8,4 C 7,8 C 6,7 C 99 % 995,7 hPa 0,0 l/m 0 min 0 min 0 W/m 19,3 km/h (3 Bft) 95,65 %
28.12.2021 21:36 8,4 C 7,8 C 6,7 C 99 % 995,6 hPa 0,0 l/m 0 min 2 min 0 W/m 16,1 km/h (3 Bft) 93,62 %
28.12.2021 21:38 8,4 C 7,8 C 6,7 C 99 % 995,8 hPa 0,0 l/m 0 min 0 min 0 W/m 16,1 km/h (3 Bft) 97,87 %
28.12.2021 21:40 8,4 C 7,8 C 6,7 C 99 % 995,9 hPa 0,2 l/m 0 min 0 min 0 W/m 19,3 km/h (3 Bft) 100,00 %
28.12.2021 21:42 8,4 C 7,8 C 6,7 C 99 % 995,9 hPa 0,0 l/m 0 min 0 min 0 W/m 16,1 km/h (3 Bft) 97,87 %
28.12.2021 21:44 8,5 C 7,8 C 6,7 C 99 % 995,8 hPa 0,0 l/m 0 min 0 min 0 W/m 22,5 km/h (4 Bft) 97,87 %
28.12.2021 21:46 8,5 C 7,8 C 6,7 C 99 % 996,0 hPa 0,0 l/m 0 min 0 min 0 W/m 19,3 km/h (3 Bft) 95,65 %
28.12.2021 21:48 8,5 C 7,8 C 6,7 C 99 % 996,0 hPa 0,0 l/m 0 min 0 min 0 W/m 16,1 km/h (3 Bft) 97,87 %
28.12.2021 21:50 8,6 C 7,8 C 6,7 C 99 % 996,0 hPa 0,0 l/m 0 min 0 min 0 W/m 16,1 km/h (3 Bft) 95,74 %
28.12.2021 21:52 8,6 C 7,8 C 6,7 C 99 % 996,1 hPa 0,0 l/m 0 min 0 min 0 W/m 25,7 km/h (4 Bft) 98,18 %
28.12.2021 21:54 8,6 C 7,8 C 6,7 C 99 % 996,1 hPa 0,0 l/m 0 min 0 min 0 W/m 22,5 km/h (4 Bft) 97,87 %
28.12.2021 21:56 8,6 C 7,8 C 6,7 C 99 % 996,1 hPa 0,0 l/m 0 min 0 min 0 W/m 38,6 km/h (5 Bft) 97,87 %
28.12.2021 21:58 8,6 C 7,8 C 6,7 C 99 % 996,3 hPa 0,0 l/m 0 min 0 min 0 W/m 25,7 km/h (4 Bft) 97,87 %
28.12.2021 22:00 8,6 C 7,8 C 6,7 C 99 % 996,2 hPa 0,0 l/m 0 min 0 min 0 W/m 22,5 km/h (4 Bft) 95,74 %
28.12.2021 22:02 8,6 C 7,8 C 6,7 C 99 % 996,4 hPa 0,0 l/m 0 min 0 min 0 W/m 29,0 km/h (5 Bft) 95,74 %
28.12.2021 22:04 8,6 C 7,8 C 6,7 C 99 % 996,4 hPa 0,0 l/m 0 min 0 min 0 W/m 29,0 km/h (5 Bft) 97,83 %
28.12.2021 22:06 8,7 C 7,8 C 6,7 C 99 % 996,5 hPa 0,0 l/m 0 min 0 min 0 W/m 29,0 km/h (5 Bft) 97,87 %
28.12.2021 22:08 8,7 C 7,8 C 6,7 C 99 % 996,4 hPa 0,0 l/m 0 min 0 min 0 W/m 19,3 km/h (3 Bft) 97,87 %
28.12.2021 22:10 8,7 C 7,8 C 6,7 C 99 % 996,5 hPa 0,0 l/m 0 min 0 min 0 W/m 19,3 km/h (3 Bft) 95,74 %
28.12.2021 22:12 8,7 C 7,8 C 6,7 C 99 % 996,5 hPa 0,0 l/m 0 min 0 min 0 W/m 16,1 km/h (3 Bft) 97,87 %
28.12.2021 22:14 8,7 C 7,8 C 6,7 C 99 % 996,6 hPa 0,0 l/m 0 min 0 min 0 W/m 25,7 km/h (4 Bft) 95,65 %
28.12.2021 22:16 8,7 C 7,8 C 6,7 C 99 % 996,7 hPa 0,0 l/m 0 min 0 min 0 W/m 19,3 km/h (3 Bft) 97,87 %
28.12.2021 22:18 8,7 C 7,8 C 6,7 C 99 % 996,7 hPa 0,0 l/m 0 min 0 min 0 W/m 22,5 km/h (4 Bft) 97,87 %
28.12.2021 22:20 8,7 C 7,8 C 6,7 C 99 % 996,7 hPa 0,0 l/m 0 min 0 min 0 W/m 29,0 km/h (5 Bft) 97,87 %
28.12.2021 22:22 8,7 C 7,8 C 6,7 C 99 % 996,8 hPa 0,0 l/m 0 min 0 min 0 W/m 19,3 km/h (3 Bft) 95,74 %
28.12.2021 22:24 8,7 C 7,8 C 6,7 C 99 % 997,0 hPa 0,0 l/m 0 min 0 min 0 W/m 16,1 km/h (3 Bft) 97,87 %
28.12.2021 22:26 8,7 C 7,8 C 7,2 C 99 % 997,0 hPa 0,0 l/m 0 min 0 min 0 W/m 16,1 km/h (3 Bft) 97,83 %
28.12.2021 22:28 8,7 C 7,8 C 6,7 C 99 % 997,1 hPa 0,0 l/m 0 min 0 min 0 W/m 19,3 km/h (3 Bft) 100,00 %
28.12.2021 22:30 8,7 C 7,8 C 6,7 C 99 % 997,1 hPa 0,0 l/m 0 min 0 min 0 W/m 19,3 km/h (3 Bft) 97,87 %
28.12.2021 22:32 8,7 C 7,8 C 6,7 C 99 % 997,2 hPa 0,0 l/m 0 min 0 min 0 W/m 12,9 km/h (3 Bft) 100,00 %
28.12.2021 22:34 8,7 C 7,8 C 6,7 C 99 % 997,1 hPa 0,0 l/m 0 min 0 min 0 W/m 22,5 km/h (4 Bft) 100,00 %
28.12.2021 22:36 8,7 C 7,8 C 7,2 C 99 % 997,2 hPa 0,0 l/m 0 min 0 min 0 W/m 16,1 km/h (3 Bft) 100,00 %
28.12.2021 22:38 8,7 C 7,8 C 7,2 C 99 % 997,3 hPa 0,0 l/m 0 min 2 min 0 W/m 16,1 km/h (3 Bft) 100,00 %
28.12.2021 22:40 8,7 C 7,8 C 7,2 C 99 % 997,2 hPa 0,0 l/m 0 min 0 min 0 W/m 19,3 km/h (3 Bft) 100,00 %
28.12.2021 22:42 8,7 C 7,8 C 7,2 C 99 % 997,3 hPa 0,0 l/m 0 min 2 min 0 W/m 16,1 km/h (3 Bft) 97,87 %
28.12.2021 22:44 8,7 C 7,8 C 7,2 C 99 % 997,4 hPa 0,0 l/m 0 min 2 min 0 W/m 16,1 km/h (3 Bft) 100,00 %
28.12.2021 22:46 8,7 C 7,8 C 7,2 C 99 % 997,5 hPa 0,0 l/m 0 min 2 min 0 W/m 19,3 km/h (3 Bft) 100,00 %
28.12.2021 22:48 8,7 C 7,8 C 7,2 C 99 % 997,5 hPa 0,0 l/m 0 min 2 min 0 W/m 22,5 km/h (4 Bft) 100,00 %
28.12.2021 22:50 8,8 C 7,8 C 7,2 C 99 % 997,6 hPa 0,0 l/m 0 min 2 min 0 W/m 29,0 km/h (5 Bft) 100,00 %
28.12.2021 22:52 8,8 C 7,8 C 7,2 C 99 % 997,6 hPa 0,0 l/m 0 min 2 min 0 W/m 22,5 km/h (4 Bft) 97,87 %
28.12.2021 22:54 8,8 C 7,8 C 7,2 C 99 % 997,7 hPa 0,0 l/m 0 min 2 min 0 W/m 22,5 km/h (4 Bft) 97,87 %
28.12.2021 22:56 8,8 C 7,8 C 7,2 C 99 % 997,9 hPa 0,0 l/m 0 min 2 min 0 W/m 16,1 km/h (3 Bft) 95,74 %
28.12.2021 22:58 8,8 C 7,8 C 7,2 C 99 % 997,8 hPa 0,0 l/m 0 min 2 min 0 W/m 19,3 km/h (3 Bft) 97,87 %
28.12.2021 23:00 8,8 C 7,8 C 7,2 C 99 % 997,8 hPa 0,0 l/m 0 min 2 min 0 W/m 19,3 km/h (3 Bft) 97,87 %
28.12.2021 23:02 8,8 C 7,8 C 7,2 C 99 % 998,0 hPa 0,0 l/m 0 min 0 min 0 W/m 22,5 km/h (4 Bft) 95,65 %
28.12.2021 23:04 8,8 C 7,8 C 7,2 C 99 % 997,9 hPa 0,0 l/m 0 min 0 min 0 W/m 22,5 km/h (4 Bft) 97,87 %
28.12.2021 23:06 8,8 C 8,3 C 7,2 C 99 % 998,0 hPa 0,0 l/m 0 min 0 min 0 W/m 19,3 km/h (3 Bft) 97,87 %
28.12.2021 23:08 8,8 C 7,8 C 7,2 C 99 % 998,0 hPa 0,0 l/m 0 min 0 min 0 W/m 22,5 km/h (4 Bft) 97,87 %
28.12.2021 23:10 8,8 C 8,3 C 7,2 C 99 % 998,1 hPa 0,0 l/m 0 min 0 min 0 W/m 19,3 km/h (3 Bft) 97,87 %
28.12.2021 23:12 8,8 C 8,3 C 7,2 C 99 % 998,2 hPa 0,0 l/m 0 min 0 min 0 W/m 22,5 km/h (4 Bft) 97,87 %
28.12.2021 23:14 8,8 C 8,3 C 7,2 C 99 % 998,1 hPa 0,0 l/m 0 min 0 min 0 W/m 22,5 km/h (4 Bft) 97,83 %
28.12.2021 23:16 8,8 C 8,3 C 7,2 C 99 % 998,2 hPa 0,0 l/m 0 min 0 min 0 W/m 19,3 km/h (3 Bft) 97,87 %
28.12.2021 23:18 8,8 C 8,3 C 7,2 C 99 % 998,3 hPa 0,0 l/m 0 min 0 min 0 W/m 16,1 km/h (3 Bft) 97,87 %
28.12.2021 23:20 8,8 C 8,3 C 7,2 C 99 % 998,4 hPa 0,0 l/m 0 min 0 min 0 W/m 12,9 km/h (3 Bft) 97,87 %
28.12.2021 23:22 8,8 C 8,3 C 7,2 C 99 % 998,4 hPa 0,0 l/m 0 min 0 min 0 W/m 19,3 km/h (3 Bft) 97,87 %
28.12.2021 23:24 8,8 C 7,8 C 7,2 C 99 % 998,5 hPa 0,0 l/m 0 min 0 min 0 W/m 22,5 km/h (4 Bft) 97,87 %
28.12.2021 23:26 8,8 C 8,3 C 7,2 C 99 % 998,6 hPa 0,0 l/m 0 min 0 min 0 W/m 19,3 km/h (3 Bft) 100,00 %
28.12.2021 23:28 8,8 C 8,3 C 7,2 C 99 % 998,7 hPa 0,0 l/m 0 min 0 min 0 W/m 25,7 km/h (4 Bft) 100,00 %
28.12.2021 23:30 8,8 C 7,8 C 7,2 C 99 % 998,7 hPa 0,0 l/m 0 min 0 min 0 W/m 29,0 km/h (5 Bft) 100,00 %
28.12.2021 23:32 8,8 C 7,8 C 7,2 C 99 % 998,7 hPa 0,0 l/m 0 min 0 min 0 W/m 19,3 km/h (3 Bft) 100,00 %
28.12.2021 23:34 8,8 C 7,8 C 7,2 C 99 % 998,8 hPa 0,0 l/m 0 min 2 min 0 W/m 16,1 km/h (3 Bft) 97,87 %
28.12.2021 23:36 8,8 C 7,8 C 7,2 C 99 % 998,9 hPa 0,0 l/m 0 min 2 min 0 W/m 16,1 km/h (3 Bft) 100,00 %
28.12.2021 23:38 8,8 C 7,8 C 7,2 C 99 % 998,8 hPa 0,0 l/m 0 min 0 min 0 W/m 19,3 km/h (3 Bft) 100,00 %
28.12.2021 23:40 8,8 C 7,8 C 7,2 C 99 % 998,9 hPa 0,0 l/m 0 min 2 min 0 W/m 19,3 km/h (3 Bft) 100,00 %
28.12.2021 23:42 8,8 C 7,8 C 7,2 C 99 % 999,0 hPa 0,0 l/m 0 min 2 min 0 W/m 25,7 km/h (4 Bft) 97,87 %
28.12.2021 23:44 8,8 C 7,8 C 7,2 C 99 % 999,0 hPa 0,0 l/m 0 min 2 min 0 W/m 19,3 km/h (3 Bft) 100,00 %
28.12.2021 23:46 8,8 C 7,8 C 7,2 C 99 % 999,0 hPa 0,0 l/m 0 min 0 min 0 W/m 19,3 km/h (3 Bft) 95,74 %
28.12.2021 23:48 8,7 C 7,8 C 7,2 C 99 % 999,1 hPa 0,0 l/m 0 min 0 min 0 W/m 22,5 km/h (4 Bft) 97,87 %
28.12.2021 23:50 8,7 C 7,8 C 7,2 C 99 % 999,0 hPa 0,0 l/m 0 min 0 min 0 W/m 22,5 km/h (4 Bft) 97,83 %
28.12.2021 23:52 8,7 C 7,8 C 7,2 C 99 % 999,1 hPa 0,0 l/m 0 min 0 min 0 W/m 29,0 km/h (5 Bft) 97,87 %
28.12.2021 23:54 8,7 C 7,8 C 7,2 C 99 % 999,1 hPa 0,0 l/m 0 min 0 min 0 W/m 22,5 km/h (4 Bft) 97,87 %
28.12.2021 23:56 8,7 C 7,8 C 7,2 C 99 % 999,1 hPa 0,0 l/m 0 min 0 min 0 W/m 19,3 km/h (3 Bft) 97,87 %
28.12.2021 23:58 8,7 C 7,8 C 7,2 C 99 % 999,2 hPa 0,0 l/m 0 min 0 min 0 W/m 22,5 km/h (4 Bft) 97,87 %
_ Min-Zeit 02:04 00:08 00:00 15:42 13:04 - - - - 19:02 17:30
Minimum _ 6,2 C 5,6 C 4,4 C 82 % 991,2 hPa - - - - 0,0 km/h (0 Bft) 50,00 %
_ Max-Zeit 14:42 14:34 12:26 12:10 23:58 18:00 09:00 18:40 14:32 13:18 00:16
Maximum _ 10,6 C 10,6 C 8,3 C 100 % 999,2 hPa 0,4 l/m 2 min 5 min 237 W/m 48,3 km/h
S (6 Bft)
100,00 %
Durchschnitt _ 8,0 C 7,3 C 6,1 C 97 % 994,2 hPa #11,8 l/m #14 min. #5:26 h 42 W/m 15,6 km/h (3 Bft) 97,33 %
© 2021 W. Hausmann